| time (UTC) | temp F | wind direction | speed knots | gust knots | rain 1hr in | rain 24hr in | rain mn in | humidity % | barometer mb |
| 20260508164122 | 65 | 210 | 0.0 | 6.1 | 0.00 | 0.00 | 0.00 | 30 | 1006.1 |
| 20260508163923 | 66 | 235 | 0.0 | 6.1 | 0.00 | 0.00 | 0.00 | 35 | 1006.1 |
| 20260508163919 | 65 | 252 | 0.0 | 6.1 | 0.00 | 0.00 | 0.00 | 33 | 1006.3 |
| 20260508163852 | 65 | 224 | 0.0 | 6.1 | 0.00 | 0.00 | 0.00 | 33 | 1006.2 |
| 20260508163510 | 66 | 292 | 0.0 | 6.1 | 0.00 | 0.00 | 0.00 | 34 | 1006.3 |
| 20260508163307 | 66 | 230 | 0.0 | 6.1 | 0.00 | 0.00 | 0.00 | 35 | 1006.2 |
| 20260508163130 | 66 | 251 | 0.0 | 6.1 | 0.00 | 0.00 | 0.00 | 39 | 1006.2 |
| 20260508163107 | 66 | 251 | 0.0 | 6.1 | 0.00 | 0.00 | 0.00 | 39 | 1006.1 |
| 20260508163012 | 65 | 217 | 0.0 | 6.1 | 0.00 | 0.00 | 0.00 | 36 | 1006.2 |
| 20260508162916 | 65 | 220 | 0.0 | 6.1 | 0.00 | 0.00 | 0.00 | 35 | 1006.2 |
| 20260508162841 | 65 | 252 | 0.0 | 6.1 | 0.00 | 0.00 | 0.00 | 36 | 1006.2 |
| 20260508162506 | 65 | 241 | 0.0 | 6.1 | 0.00 | 0.00 | 0.00 | 35 | 1006.2 |
| 20260508162306 | 64 | 271 | 0.0 | 6.1 | 0.00 | 0.00 | 0.00 | 35 | 1006.3 |
| 20260508162125 | 64 | 264 | 0.0 | 6.1 | 0.00 | 0.00 | 0.00 | 35 | 1006.4 |
| 20260508162105 | 64 | 252 | 0.0 | 6.1 | 0.00 | 0.00 | 0.00 | 36 | 1006.3 |
| 20260508161934 | 65 | 261 | 0.0 | 6.1 | 0.00 | 0.00 | 0.00 | 36 | 1006.4 |
| 20260508161923 | 65 | 220 | 0.0 | 6.1 | 0.00 | 0.00 | 0.00 | 35 | 1006.3 |
| 20260508161855 | 65 | 261 | 0.0 | 6.1 | 0.00 | 0.00 | 0.00 | 36 | 1006.4 |
| 20260508161506 | 65 | 219 | 0.0 | 6.1 | 0.00 | 0.00 | 0.00 | 36 | 1006.3 |
| 20260508161239 | 65 | 217 | 0.0 | 11.3 | 0.00 | 0.00 | 0.00 | 36 | 1006.4 |
| 20260508161120 | 65 | 224 | 0.0 | 11.3 | 0.00 | 0.00 | 0.00 | 36 | 1006.4 |
| 20260508161031 | 65 | 245 | 0.0 | 11.3 | 0.00 | 0.00 | 0.00 | 39 | 1006.5 |
| 20260508160829 | 65 | 254 | 0.0 | 11.3 | 0.00 | 0.00 | 0.00 | 36 | 1006.5 |
| 20260508160621 | 65 | 257 | 0.0 | 11.3 | 0.00 | 0.00 | 0.00 | 37 | 1006.5 |
| 20260508160430 | 65 | 207 | 0.0 | 11.3 | 0.00 | 0.00 | 0.00 | 37 | 1006.5 |
| 20260508160229 | 65 | 248 | 0.0 | 7.8 | 0.00 | 0.00 | 0.00 | 38 | 1006.4 |
| 20260508160139 | 64 | 248 | 0.0 | 5.2 | 0.00 | 0.00 | 0.00 | 39 | 1006.4 |
| 20260508160122 | 65 | 237 | 0.0 | 7.8 | 0.00 | 0.00 | 0.00 | 42 | 1006.6 |
| 20260508155832 | 63 | 237 | 0.0 | 5.2 | 0.00 | 0.00 | 0.00 | 41 | 1006.5 |
| 20260508155622 | 62 | 224 | 0.0 | 5.2 | 0.00 | 0.00 | 0.00 | 40 | 1006.6 |
| 20260508155433 | 62 | 224 | 0.0 | 6.1 | 0.00 | 0.00 | 0.00 | 40 | 1006.7 |
| 20260508155232 | 62 | 265 | 0.0 | 10.4 | 0.00 | 0.00 | 0.00 | 38 | 1006.6 |
| 20260508155114 | 62 | 264 | 0.0 | 10.4 | 0.00 | 0.00 | 0.00 | 39 | 1006.7 |
| 20260508155034 | 62 | 214 | 0.0 | 10.4 | 0.00 | 0.00 | 0.00 | 39 | 1006.7 |
| 20260508154833 | 62 | 186 | 0.0 | 10.4 | 0.00 | 0.00 | 0.00 | 39 | 1006.7 |
| 20260508154623 | 62 | 240 | 0.0 | 10.4 | 0.00 | 0.00 | 0.00 | 39 | 1006.8 |
| 20260508154614 | 62 | 212 | 0.0 | 10.4 | 0.00 | 0.00 | 0.00 | 39 | 1006.8 |
| 20260508154520 | 62 | 248 | 0.0 | 10.4 | 0.00 | 0.00 | 0.00 | 37 | 1006.7 |
| 20260508154205 | 62 | 241 | 0.0 | 8.7 | 0.00 | 0.00 | 0.00 | 37 | 1006.7 |
| 20260508154116 | 62 | 252 | 0.0 | 8.7 | 0.00 | 0.00 | 0.00 | 37 | 1006.7 |
| 20260508154005 | 62 | 223 | 0.0 | 10.4 | 0.00 | 0.00 | 0.00 | 37 | 1006.7 |
| 20260508153802 | 62 | 241 | 0.0 | 10.4 | 0.00 | 0.00 | 0.00 | 37 | 1006.8 |
| 20260508153603 | 62 | 259 | 0.0 | 10.4 | 0.00 | 0.00 | 0.00 | 39 | 1006.8 |
| 20260508153401 | 62 | 199 | 0.0 | 10.4 | 0.00 | 0.00 | 0.00 | 40 | 1006.8 |
| 20260508153202 | 62 | 219 | 0.0 | 10.4 | 0.00 | 0.00 | 0.00 | 36 | 1006.9 |
| 20260508153104 | 62 | 219 | 0.0 | 10.4 | 0.00 | 0.00 | 0.00 | 39 | 1006.9 |
| 20260508153003 | 62 | 237 | 0.0 | 9.6 | 0.00 | 0.00 | 0.00 | 40 | 1006.9 |
| 20260508152736 | 62 | 221 | 0.0 | 9.6 | 0.00 | 0.00 | 0.00 | 38 | 1006.8 |
| 20260508152604 | 62 | 281 | 0.0 | 10.4 | 0.00 | 0.00 | 0.00 | 37 | 1006.9 |
| 20260508152534 | 62 | 213 | 0.0 | 10.4 | 0.00 | 0.00 | 0.00 | 38 | 1006.9 |
| 20260508152330 | 62 | 223 | 0.0 | 10.4 | 0.00 | 0.00 | 0.00 | 38 | 1007.0 |
| 20260508152131 | 61 | 238 | 0.0 | 10.4 | 0.00 | 0.00 | 0.00 | 40 | 1006.9 |
| 20260508152106 | 61 | 251 | 0.0 | 10.4 | 0.00 | 0.00 | 0.00 | 40 | 1006.9 |
| 20260508152032 | 61 | 226 | 0.0 | 10.4 | 0.00 | 0.00 | 0.00 | 40 | 1006.9 |
| 20260508151727 | 60 | 233 | 0.0 | 10.4 | 0.00 | 0.00 | 0.00 | 39 | 1006.9 |
| 20260508151604 | 60 | 190 | 0.0 | 8.7 | 0.00 | 0.00 | 0.00 | 39 | 1006.9 |
| 20260508151524 | 60 | 262 | 0.0 | 8.7 | 0.00 | 0.00 | 0.00 | 39 | 1006.9 |
| 20260508151324 | 60 | 196 | 0.0 | 8.7 | 0.00 | 0.00 | 0.00 | 39 | 1007.0 |
| 20260508151125 | 60 | 258 | 0.0 | 8.7 | 0.00 | 0.00 | 0.00 | 39 | 1007.0 |
| 20260508151103 | 60 | 258 | 0.0 | 8.7 | 0.00 | 0.00 | 0.00 | 39 | 1007.1 |
| 20260508150906 | 60 | 244 | 0.0 | 8.7 | 0.00 | 0.00 | 0.00 | 39 | 1007.0 |
| 20260508150709 | 60 | 223 | 0.0 | 8.7 | 0.00 | 0.00 | 0.00 | 39 | 1007.0 |
| 20260508150603 | 60 | 183 | 0.0 | 9.6 | 0.00 | 0.00 | 0.00 | 41 | 1007.1 |
| 20260508150511 | 60 | 186 | 0.0 | 9.6 | 0.00 | 0.00 | 0.00 | 40 | 1007.1 |
| 20260508150409 | 59 | 206 | 0.0 | 9.6 | 0.00 | 0.00 | 0.00 | 41 | 1007.1 |
| 20260508145906 | 59 | 206 | 0.0 | 9.6 | 0.00 | 0.00 | 0.00 | 40 | 1007.1 |
| 20260508145701 | 59 | 223 | 0.0 | 10.4 | 0.00 | 0.00 | 0.00 | 39 | 1007.1 |
| 20260508145601 | 59 | 257 | 0.0 | 10.4 | 0.00 | 0.00 | 0.00 | 39 | 1007.1 |
| 20260508145501 | 59 | 220 | 0.0 | 10.4 | 0.00 | 0.00 | 0.00 | 40 | 1007.1 |
| 20260508145359 | 59 | 247 | 0.0 | 10.4 | 0.00 | 0.00 | 0.00 | 40 | 1007.1 |
| 20260508145101 | 59 | 240 | 0.0 | 10.4 | 0.00 | 0.00 | 0.00 | 44 | 1007.2 |
| 20260508144901 | 59 | 224 | 0.0 | 10.4 | 0.00 | 0.00 | 0.00 | 41 | 1007.1 |
| 20260508144702 | 59 | 206 | 0.0 | 10.4 | 0.00 | 0.00 | 0.00 | 40 | 1007.2 |
| 20260508144602 | 59 | 226 | 0.0 | 10.4 | 0.00 | 0.00 | 0.00 | 41 | 1007.2 |
| 20260508144501 | 59 | 230 | 0.0 | 10.4 | 0.00 | 0.00 | 0.00 | 40 | 1007.2 |
| 20260508144301 | 59 | 207 | 0.0 | 8.7 | 0.00 | 0.00 | 0.00 | 41 | 1007.4 |
| 20260508144102 | 58 | 212 | 0.0 | 8.7 | 0.00 | 0.00 | 0.00 | 41 | 1007.2 |
| 20260508143838 | 58 | 228 | 0.0 | 10.4 | 0.00 | 0.00 | 0.00 | 42 | 1007.3 |
| 20260508143738 | 58 | 258 | 0.0 | 10.4 | 0.00 | 0.00 | 0.00 | 42 | 1007.2 |
| 20260508143546 | 58 | 204 | 0.0 | 10.4 | 0.00 | 0.00 | 0.00 | 41 | 1007.3 |
| 20260508143436 | 58 | 206 | 0.0 | 10.4 | 0.00 | 0.00 | 0.00 | 42 | 1007.3 |
| 20260508143230 | 58 | 193 | 0.0 | 10.4 | 0.00 | 0.00 | 0.00 | 42 | 1007.3 |
| 20260508143046 | 58 | 193 | 0.0 | 10.4 | 0.00 | 0.00 | 0.00 | 42 | 1007.2 |
| 20260508143030 | 58 | 192 | 0.0 | 10.4 | 0.00 | 0.00 | 0.00 | 42 | 1007.2 |
| 20260508142830 | 58 | 216 | 0.0 | 10.4 | 0.00 | 0.00 | 0.00 | 43 | 1007.2 |
| 20260508142631 | 58 | 200 | 0.0 | 10.4 | 0.00 | 0.00 | 0.00 | 42 | 1007.3 |
| 20260508142545 | 58 | 209 | 0.0 | 10.4 | 0.00 | 0.00 | 0.00 | 42 | 1007.3 |
| 20260508142430 | 57 | 214 | 0.0 | 10.4 | 0.00 | 0.00 | 0.00 | 42 | 1007.2 |
| 20260508142229 | 57 | 195 | 0.0 | 8.7 | 0.00 | 0.00 | 0.00 | 44 | 1007.3 |
| 20260508142129 | 57 | 206 | 0.0 | 8.7 | 0.00 | 0.00 | 0.00 | 44 | 1007.3 |
| 20260508142044 | 57 | 192 | 0.0 | 8.7 | 0.00 | 0.00 | 0.00 | 44 | 1007.3 |
| 20260508141826 | 57 | 206 | 0.0 | 8.7 | 0.00 | 0.00 | 0.00 | 44 | 1007.2 |
| 20260508141624 | 57 | 214 | 0.0 | 8.7 | 0.00 | 0.00 | 0.00 | 42 | 1007.3 |
| 20260508141546 | 57 | 213 | 0.0 | 12.2 | 0.00 | 0.00 | 0.00 | 43 | 1007.4 |
| 20260508141424 | 57 | 202 | 0.0 | 12.2 | 0.00 | 0.00 | 0.00 | 43 | 1007.3 |
| 20260508141225 | 56 | 240 | 0.0 | 12.2 | 0.00 | 0.00 | 0.00 | 43 | 1007.4 |
| 20260508141045 | 56 | 199 | 0.0 | 12.2 | 0.00 | 0.00 | 0.00 | 44 | 1007.4 |
| 20260508141023 | 56 | 245 | 0.0 | 12.2 | 0.00 | 0.00 | 0.00 | 43 | 1007.4 |
| 20260508140823 | 56 | 206 | 0.0 | 12.2 | 0.00 | 0.00 | 0.00 | 42 | 1007.4 |
| 20260508140616 | 56 | 209 | 0.0 | 12.2 | 0.00 | 0.00 | 0.00 | 43 | 1007.3 |
| 20260508140542 | 56 | 200 | 0.0 | 12.2 | 0.00 | 0.00 | 0.00 | 43 | 1007.3 |
| 20260508140417 | 56 | 197 | 0.0 | 12.2 | 0.00 | 0.00 | 0.00 | 43 | 1007.4 |
| 20260508140345 | 56 | 241 | 0.0 | 12.2 | 0.00 | 0.00 | 0.00 | 43 | 1007.3 |
| 20260508140339 | 56 | 241 | 0.0 | 12.2 | 0.00 | 0.00 | 0.00 | 42 | 1007.4 |
| 20260508140321 | 56 | 195 | 0.0 | 12.2 | 0.00 | 0.00 | 0.00 | 42 | 1007.3 |
| 20260508135850 | 56 | 221 | 0.0 | 10.4 | 0.00 | 0.00 | 0.00 | 42 | 1007.4 |
| 20260508135839 | 56 | 264 | 0.0 | 9.6 | 0.00 | 0.00 | 0.00 | 42 | 1007.4 |
| 20260508135809 | 56 | 221 | 0.0 | 10.4 | 0.00 | 0.00 | 0.00 | 43 | 1007.4 |
| 20260508135413 | 56 | 206 | 0.0 | 10.4 | 0.00 | 0.00 | 0.00 | 43 | 1007.4 |
| 20260508135214 | 56 | 203 | 0.0 | 10.4 | 0.00 | 0.00 | 0.00 | 43 | 1007.5 |
| 20260508135041 | 56 | 220 | 0.0 | 10.4 | 0.00 | 0.00 | 0.00 | 44 | 1007.4 |
| 20260508135013 | 56 | 235 | 0.0 | 10.4 | 0.00 | 0.00 | 0.00 | 44 | 1007.5 |
| 20260508134844 | 55 | 221 | 0.0 | 8.7 | 0.00 | 0.00 | 0.00 | 43 | 1007.5 |
| 20260508134831 | 55 | 258 | 0.0 | 10.4 | 0.00 | 0.00 | 0.00 | 42 | 1007.5 |
| 20260508134803 | 55 | 226 | 0.0 | 7.8 | 0.00 | 0.00 | 0.00 | 43 | 1007.5 |
| 20260508134506 | 55 | 193 | 0.0 | 9.6 | 0.00 | 0.00 | 0.00 | 43 | 1007.5 |
| 20260508134205 | 55 | 206 | 0.0 | 9.6 | 0.00 | 0.00 | 0.00 | 43 | 1007.5 |
| 20260508134038 | 55 | 257 | 0.0 | 9.6 | 0.00 | 0.00 | 0.00 | 44 | 1007.5 |
| 20260508134005 | 55 | 248 | 0.0 | 9.6 | 0.00 | 0.00 | 0.00 | 44 | 1007.5 |
| 20260508133839 | 54 | 210 | 0.0 | 9.6 | 0.00 | 0.00 | 0.00 | 45 | 1007.6 |
| 20260508133827 | 55 | 197 | 0.0 | 9.6 | 0.00 | 0.00 | 0.00 | 43 | 1007.5 |
| 20260508133758 | 54 | 183 | 0.0 | 9.6 | 0.00 | 0.00 | 0.00 | 45 | 1007.6 |
| 20260508133403 | 54 | 207 | 0.0 | 11.3 | 0.00 | 0.00 | 0.00 | 44 | 1007.6 |
| 20260508133203 | 54 | 214 | 0.0 | 11.3 | 0.00 | 0.00 | 0.00 | 44 | 1007.6 |
| 20260508133036 | 54 | 199 | 0.0 | 11.3 | 0.00 | 0.00 | 0.00 | 43 | 1007.6 |
| 20260508133005 | 54 | 217 | 0.0 | 11.3 | 0.00 | 0.00 | 0.00 | 43 | 1007.6 |
| 20260508132858 | 53 | 214 | 0.0 | 11.3 | 0.00 | 0.00 | 0.00 | 43 | 1007.6 |
| 20260508132838 | 53 | 214 | 0.0 | 11.3 | 0.00 | 0.00 | 0.00 | 43 | 1007.6 |
| 20260508132825 | 54 | 234 | 0.0 | 11.3 | 0.00 | 0.00 | 0.00 | 43 | 1007.6 |
| 20260508132405 | 53 | 259 | 0.0 | 11.3 | 0.00 | 0.00 | 0.00 | 44 | 1007.5 |
| 20260508132135 | 53 | 216 | 0.0 | 11.3 | 0.00 | 0.00 | 0.00 | 44 | 1007.6 |
| 20260508132034 | 53 | 203 | 0.0 | 11.3 | 0.00 | 0.00 | 0.00 | 44 | 1007.6 |
| 20260508131933 | 53 | 202 | 0.0 | 11.3 | 0.00 | 0.00 | 0.00 | 43 | 1007.5 |
| 20260508131836 | 53 | 233 | 0.0 | 11.3 | 0.00 | 0.00 | 0.00 | 44 | 1007.6 |
| 20260508131821 | 53 | 220 | 0.0 | 11.3 | 0.00 | 0.00 | 0.00 | 43 | 1007.6 |
| 20260508131745 | 53 | 233 | 0.0 | 11.3 | 0.00 | 0.00 | 0.00 | 44 | 1007.6 |
| 20260508131331 | 53 | 237 | 0.0 | 11.3 | 0.00 | 0.00 | 0.00 | 45 | 1007.6 |
| 20260508131131 | 53 | 248 | 0.0 | 11.3 | 0.00 | 0.00 | 0.00 | 43 | 1007.8 |
| 20260508131050 | 53 | 195 | 0.0 | 11.3 | 0.00 | 0.00 | 0.00 | 43 | 1007.6 |
| 20260508131031 | 53 | 200 | 0.0 | 11.3 | 0.00 | 0.00 | 0.00 | 43 | 1007.6 |
| 20260508130832 | 53 | 245 | 0.0 | 11.3 | 0.00 | 0.00 | 0.00 | 44 | 1007.6 |
| 20260508130820 | 53 | 195 | 0.0 | 11.3 | 0.00 | 0.00 | 0.00 | 44 | 1007.6 |
| 20260508130749 | 53 | 245 | 0.0 | 11.3 | 0.00 | 0.00 | 0.00 | 44 | 1007.6 |
| 20260508130332 | 53 | 219 | 0.0 | 11.3 | 0.00 | 0.00 | 0.00 | 44 | 1007.6 |
| 20260508130132 | 53 | 207 | 0.0 | 8.7 | 0.00 | 0.00 | 0.00 | 44 | 1007.8 |
| 20260508130034 | 53 | 216 | 0.0 | 7.8 | 0.00 | 0.00 | 0.00 | 46 | 1007.6 |
| 20260508125932 | 53 | 238 | 0.0 | 7.8 | 0.00 | 0.00 | 0.00 | 46 | 1007.6 |
| 20260508125805 | 52 | 234 | 0.0 | 10.4 | 0.00 | 0.00 | 0.00 | 45 | 1007.6 |
| 20260508125743 | 52 | 234 | 0.0 | 10.4 | 0.00 | 0.00 | 0.00 | 45 | 1007.6 |
| 20260508125327 | 52 | 217 | 0.0 | 10.4 | 0.00 | 0.00 | 0.00 | 44 | 1007.6 |
| 20260508125125 | 52 | 212 | 0.0 | 11.3 | 0.00 | 0.00 | 0.00 | 44 | 1007.6 |
| 20260508125035 | 52 | 247 | 0.0 | 11.3 | 0.00 | 0.00 | 0.00 | 45 | 1007.6 |
| 20260508124925 | 51 | 230 | 0.0 | 11.3 | 0.00 | 0.00 | 0.00 | 44 | 1007.8 |
| 20260508124724 | 51 | 245 | 0.0 | 11.3 | 0.00 | 0.00 | 0.00 | 45 | 1007.8 |
| 20260508124526 | 51 | 237 | 0.0 | 11.3 | 0.00 | 0.00 | 0.00 | 45 | 1007.8 |
| 20260508124324 | 51 | 227 | 0.0 | 11.3 | 0.00 | 0.00 | 0.00 | 45 | 1007.8 |
| 20260508124124 | 51 | 200 | 0.0 | 11.3 | 0.00 | 0.00 | 0.00 | 45 | 1007.6 |
| 20260508124040 | 51 | 185 | 0.0 | 11.3 | 0.00 | 0.00 | 0.00 | 45 | 1007.6 |
| 20260508124029 | 51 | 182 | 0.0 | 11.3 | 0.00 | 0.00 | 0.00 | 46 | 1007.8 |
| 20260508123724 | 51 | 183 | 0.0 | 11.3 | 0.00 | 0.00 | 0.00 | 45 | 1007.8 |
| 20260508123526 | 50 | 207 | 0.0 | 11.3 | 0.00 | 0.00 | 0.00 | 45 | 1007.8 |
| 20260508123324 | 50 | 202 | 0.0 | 11.3 | 0.00 | 0.00 | 0.00 | 45 | 1007.8 |
| 20260508123125 | 50 | 207 | 0.0 | 10.4 | 0.00 | 0.00 | 0.00 | 46 | 1007.8 |
| 20260508123035 | 50 | 223 | 0.0 | 10.4 | 0.00 | 0.00 | 0.00 | 46 | 1007.8 |
| 20260508122924 | 50 | 202 | 0.0 | 10.4 | 0.00 | 0.00 | 0.00 | 46 | 1007.8 |
| 20260508122725 | 50 | 199 | 0.0 | 10.4 | 0.00 | 0.00 | 0.00 | 49 | 1007.8 |
| 20260508122525 | 49 | 175 | 0.0 | 10.4 | 0.00 | 0.00 | 0.00 | 46 | 1007.6 |
| 20260508122424 | 49 | 204 | 0.0 | 9.6 | 0.00 | 0.00 | 0.00 | 46 | 1007.8 |
| 20260508122124 | 49 | 233 | 0.0 | 9.6 | 0.00 | 0.00 | 0.00 | 46 | 1007.8 |
| 20260508122033 | 49 | 220 | 0.0 | 9.6 | 0.00 | 0.00 | 0.00 | 46 | 1007.6 |
| 20260508121924 | 49 | 204 | 0.0 | 9.6 | 0.00 | 0.00 | 0.00 | 46 | 1007.6 |
| 20260508121724 | 49 | 228 | 0.0 | 9.6 | 0.00 | 0.00 | 0.00 | 46 | 1007.5 |
| 20260508121526 | 49 | 195 | 0.0 | 9.6 | 0.00 | 0.00 | 0.00 | 47 | 1007.6 |
| 20260508121324 | 49 | 195 | 0.0 | 9.6 | 0.00 | 0.00 | 0.00 | 47 | 1007.6 |
| 20260508121125 | 49 | 220 | 0.0 | 7.8 | 0.00 | 0.00 | 0.00 | 47 | 1007.6 |
| 20260508121032 | 49 | 228 | 0.0 | 7.8 | 0.00 | 0.00 | 0.00 | 47 | 1007.6 |
| 20260508120924 | 49 | 199 | 0.0 | 7.8 | 0.00 | 0.00 | 0.00 | 47 | 1007.6 |
| 20260508120724 | 48 | 226 | 0.0 | 8.7 | 0.00 | 0.00 | 0.00 | 47 | 1007.6 |
| 20260508120526 | 48 | 206 | 0.0 | 8.7 | 0.00 | 0.00 | 0.00 | 47 | 1007.6 |
| 20260508120326 | 48 | 209 | 0.0 | 8.7 | 0.00 | 0.00 | 0.00 | 46 | 1007.5 |
| 20260508120147 | 48 | 226 | 0.0 | 8.7 | 0.00 | 0.00 | 0.00 | 46 | 1007.5 |
| 20260508120135 | 48 | 190 | 0.0 | 6.1 | 0.00 | 0.00 | 0.00 | 46 | 1007.5 |
| 20260508120130 | 48 | 234 | 0.0 | 8.7 | 0.00 | 0.00 | 0.00 | 47 | 1007.6 |
| 20260508120109 | 48 | 234 | 0.0 | 8.7 | 0.00 | 0.00 | 0.00 | 47 | 1007.6 |
| 20260508115809 | 48 | 234 | 0.0 | 6.1 | 0.00 | 0.00 | 0.00 | 47 | 1007.5 |
| 20260508115738 | 48 | 190 | 0.0 | 6.1 | 0.00 | 0.00 | 0.00 | 46 | 1007.5 |
| 20260508115325 | 48 | 207 | 0.0 | 6.1 | 0.00 | 0.00 | 0.00 | 47 | 1007.5 |
| 20260508115126 | 48 | 203 | 0.0 | 9.6 | 0.00 | 0.00 | 0.00 | 47 | 1007.5 |
| 20260508115031 | 48 | 210 | 0.0 | 9.6 | 0.00 | 0.00 | 0.00 | 47 | 1007.6 |
| 20260508114924 | 47 | 202 | 0.0 | 9.6 | 0.00 | 0.00 | 0.00 | 46 | 1007.5 |
| 20260508114825 | 47 | 223 | 0.0 | 9.6 | 0.00 | 0.00 | 0.00 | 47 | 1007.5 |
| 20260508114810 | 47 | 209 | 0.0 | 9.6 | 0.00 | 0.00 | 0.00 | 47 | 1007.5 |
| 20260508114740 | 47 | 223 | 0.0 | 9.6 | 0.00 | 0.00 | 0.00 | 47 | 1007.5 |
| 20260508114429 | 47 | 183 | 0.0 | 9.6 | 0.00 | 0.00 | 0.00 | 47 | 1007.5 |
| 20260508114125 | 47 | 197 | 0.0 | 6.1 | 0.00 | 0.00 | 0.00 | 47 | 1007.5 |
| 20260508114031 | 47 | 212 | 0.0 | 6.1 | 0.00 | 0.00 | 0.00 | 47 | 1007.5 |
| 20260508113924 | 47 | 206 | 0.0 | 6.1 | 0.00 | 0.00 | 0.00 | 47 | 1007.6 |
| 20260508113827 | 47 | 183 | 0.0 | 6.1 | 0.00 | 0.00 | 0.00 | 47 | 1007.5 |
| 20260508113810 | 47 | 190 | 0.0 | 6.1 | 0.00 | 0.00 | 0.00 | 48 | 1007.6 |
| 20260508113738 | 47 | 183 | 0.0 | 6.1 | 0.00 | 0.00 | 0.00 | 47 | 1007.5 |
| 20260508113324 | 47 | 200 | 0.0 | 6.1 | 0.00 | 0.00 | 0.00 | 47 | 1007.5 |
| 20260508113125 | 47 | 196 | 0.0 | 6.1 | 0.00 | 0.00 | 0.00 | 47 | 1007.6 |
| 20260508113031 | 47 | 161 | 0.0 | 6.1 | 0.00 | 0.00 | 0.00 | 48 | 1007.5 |
| 20260508112924 | 47 | 212 | 0.0 | 6.1 | 0.00 | 0.00 | 0.00 | 47 | 1007.6 |
| 20260508112824 | 47 | 200 | 0.0 | 7.8 | 0.00 | 0.00 | 0.00 | 48 | 1007.6 |
| 20260508112809 | 47 | 217 | 0.0 | 6.1 | 0.00 | 0.00 | 0.00 | 47 | 1007.6 |
| 20260508112738 | 47 | 200 | 0.0 | 7.8 | 0.00 | 0.00 | 0.00 | 48 | 1007.6 |
| 20260508112326 | 47 | 203 | 0.0 | 8.7 | 0.00 | 0.00 | 0.00 | 48 | 1007.6 |
| 20260508112125 | 47 | 203 | 0.0 | 8.7 | 0.00 | 0.00 | 0.00 | 48 | 1007.6 |
| 20260508112027 | 47 | 195 | 0.0 | 8.7 | 0.00 | 0.00 | 0.00 | 48 | 1007.6 |
| 20260508111924 | 47 | 190 | 0.0 | 8.7 | 0.00 | 0.00 | 0.00 | 48 | 1007.6 |
| 20260508111825 | 46 | 188 | 0.0 | 8.7 | 0.00 | 0.00 | 0.00 | 48 | 1007.6 |
| 20260508111527 | 46 | 204 | 0.0 | 8.7 | 0.00 | 0.00 | 0.00 | 49 | 1007.5 |
| 20260508111325 | 46 | 219 | 0.0 | 6.1 | 0.00 | 0.00 | 0.00 | 49 | 1007.6 |
| 20260508111124 | 46 | 226 | 0.0 | 6.1 | 0.00 | 0.00 | 0.00 | 49 | 1007.5 |
| 20260508111033 | 46 | 235 | 0.0 | 6.1 | 0.00 | 0.00 | 0.00 | 49 | 1007.5 |
| 20260508110924 | 46 | 220 | 0.0 | 6.1 | 0.00 | 0.00 | 0.00 | 50 | 1007.6 |
| 20260508110726 | 46 | 197 | 0.0 | 6.1 | 0.00 | 0.00 | 0.00 | 50 | 1007.6 |
| 20260508110525 | 45 | 193 | 0.0 | 6.1 | 0.00 | 0.00 | 0.00 | 50 | 1007.6 |
| 20260508110325 | 45 | 200 | 0.0 | 5.2 | 0.00 | 0.00 | 0.00 | 50 | 1007.6 |
| 20260508110225 | 45 | 204 | 0.0 | 5.2 | 0.00 | 0.00 | 0.00 | 50 | 1007.6 |
| 20260508110025 | 45 | 175 | 0.0 | 5.2 | 0.00 | 0.00 | 0.00 | 50 | 1007.5 |
| 20260508105924 | 45 | 186 | 0.0 | 5.2 | 0.00 | 0.00 | 0.00 | 50 | 1007.6 |
| 20260508105724 | 45 | 200 | 0.0 | 5.2 | 0.00 | 0.00 | 0.00 | 51 | 1007.6 |
| 20260508105527 | 45 | 199 | 0.0 | 5.2 | 0.00 | 0.00 | 0.00 | 51 | 1007.5 |
| 20260508105324 | 45 | 200 | 0.0 | 3.5 | 0.00 | 0.00 | 0.00 | 51 | 1007.5 |
| 20260508105124 | 45 | 195 | 0.0 | 3.5 | 0.00 | 0.00 | 0.00 | 51 | 1007.5 |
| 20260508105015 | 45 | 204 | 0.0 | 3.5 | 0.00 | 0.00 | 0.00 | 51 | 1007.6 |
| 20260508104926 | 44 | 212 | 0.0 | 3.5 | 0.00 | 0.00 | 0.00 | 52 | 1007.6 |
| 20260508104725 | 44 | 199 | 0.0 | 3.5 | 0.00 | 0.00 | 0.00 | 52 | 1007.6 |
| 20260508104525 | 44 | 204 | 0.0 | 3.5 | 0.00 | 0.00 | 0.00 | 52 | 1007.6 |
| 20260508104510 | 44 | 204 | 0.0 | 3.5 | 0.00 | 0.00 | 0.00 | 52 | 1007.5 |
| 20260508104324 | 44 | 206 | 0.0 | 4.3 | 0.00 | 0.00 | 0.00 | 52 | 1007.6 |
| 20260508104124 | 44 | 206 | 0.0 | 4.3 | 0.00 | 0.00 | 0.00 | 52 | 1007.6 |
| 20260508104031 | 44 | 206 | 0.0 | 4.3 | 0.00 | 0.00 | 0.00 | 52 | 1007.8 |
| 20260508104012 | 44 | 206 | 0.0 | 4.3 | 0.00 | 0.00 | 0.00 | 52 | 1007.8 |
| 20260508103724 | 44 | 206 | 0.0 | 4.3 | 0.00 | 0.00 | 0.00 | 53 | 1007.6 |
| 20260508103525 | 44 | 206 | 0.0 | 4.3 | 0.00 | 0.00 | 0.00 | 53 | 1007.6 |
| 20260508103509 | 44 | 206 | 0.0 | 4.3 | 0.00 | 0.00 | 0.00 | 53 | 1007.5 |
| 20260508103325 | 44 | 192 | 0.0 | 1.7 | 0.00 | 0.00 | 0.00 | 53 | 1007.6 |
| 20260508103301 | 44 | 192 | 0.0 | 1.7 | 0.00 | 0.00 | 0.00 | 53 | 1007.6 |
| 20260508103238 | 44 | 192 | 0.0 | 1.7 | 0.00 | 0.00 | 0.00 | 53 | 1007.6 |
| 20260508102925 | 44 | 192 | 0.0 | 1.7 | 0.00 | 0.00 | 0.00 | 53 | 1007.6 |
| 20260508102725 | 44 | 192 | 0.0 | 1.7 | 0.00 | 0.00 | 0.00 | 53 | 1007.8 |
| 20260508102504 | 43 | 192 | 0.0 | 1.7 | 0.00 | 0.00 | 0.00 | 53 | 1007.6 |
| 20260508102425 | 43 | 190 | 0.0 | 1.7 | 0.00 | 0.00 | 0.00 | 53 | 1007.6 |
| 20260508102306 | 43 | 190 | 0.0 | 0.9 | 0.00 | 0.00 | 0.00 | 53 | 1007.8 |
| 20260508102241 | 43 | 190 | 0.0 | 0.9 | 0.00 | 0.00 | 0.00 | 54 | 1007.6 |
| 20260508101925 | 43 | 190 | 0.0 | 0.9 | 0.00 | 0.00 | 0.00 | 53 | 1007.8 |
| 20260508101724 | 43 | 190 | 0.0 | 0.9 | 0.00 | 0.00 | 0.00 | 53 | 1007.8 |
| 20260508101525 | 43 | 190 | 0.0 | 1.7 | 0.00 | 0.00 | 0.00 | 53 | 1007.6 |
| 20260508101503 | 43 | 190 | 0.0 | 1.7 | 0.00 | 0.00 | 0.00 | 53 | 1007.8 |
| 20260508101325 | 43 | 190 | 0.0 | 1.7 | 0.00 | 0.00 | 0.00 | 54 | 1007.8 |
| 20260508101303 | 43 | 190 | 0.0 | 1.7 | 0.00 | 0.00 | 0.00 | 54 | 1007.9 |
| 20260508101237 | 43 | 190 | 0.0 | 1.7 | 0.00 | 0.00 | 0.00 | 54 | 1007.8 |
| 20260508100922 | 43 | 190 | 0.0 | 1.7 | 0.00 | 0.00 | 0.00 | 53 | 1007.9 |
| 20260508100721 | 43 | 190 | 0.0 | 1.7 | 0.00 | 0.00 | 0.00 | 53 | 1007.8 |
| 20260508100502 | 43 | 190 | 0.0 | 1.7 | 0.00 | 0.00 | 0.00 | 53 | 1007.8 |
| 20260508100320 | 44 | 190 | 0.0 | 1.7 | 0.00 | 0.00 | 0.00 | 53 | 1007.9 |
| 20260508100122 | 44 | 190 | 0.0 | 1.7 | 0.00 | 0.00 | 0.00 | 53 | 1007.9 |
| 20260508100006 | 44 | 190 | 0.0 | 1.7 | 0.00 | 0.00 | 0.00 | 53 | 1007.6 |
| 20260508095923 | 44 | 190 | 0.0 | 1.7 | 0.00 | 0.00 | 0.00 | 53 | 1007.6 |
| 20260508095809 | 44 | 190 | 0.0 | 0.9 | 0.00 | 0.00 | 0.00 | 53 | 1007.9 |
| 20260508095506 | 44 | 190 | 0.0 | 0.9 | 0.00 | 0.00 | 0.00 | 53 | 1007.8 |
| 20260508095431 | 44 | 190 | 0.0 | 0.9 | 0.00 | 0.00 | 0.00 | 53 | 1007.8 |
| 20260508095307 | 44 | 190 | 0.0 | 0.9 | 0.00 | 0.00 | 0.00 | 53 | 1007.8 |
| 20260508095110 | 44 | 190 | 0.0 | 0.9 | 0.00 | 0.00 | 0.00 | 53 | 1007.8 |
| 20260508094935 | 44 | 190 | 0.0 | 0.9 | 0.00 | 0.00 | 0.00 | 53 | 1007.8 |
| 20260508094910 | 44 | 190 | 0.0 | 0.9 | 0.00 | 0.00 | 0.00 | 53 | 1007.9 |
| 20260508094711 | 44 | 190 | 0.0 | 0.9 | 0.00 | 0.00 | 0.00 | 53 | 1007.9 |
| 20260508094509 | 44 | 190 | 0.0 | 0.9 | 0.00 | 0.00 | 0.00 | 52 | 1007.9 |
| 20260508094436 | 44 | 190 | 0.0 | 0.9 | 0.00 | 0.00 | 0.00 | 53 | 1007.9 |
| 20260508094308 | 44 | 190 | 0.0 | 0.9 | 0.00 | 0.00 | 0.00 | 52 | 1007.9 |
| 20260508094204 | 44 | 190 | 0.0 | 0.9 | 0.00 | 0.00 | 0.00 | 52 | 1007.9 |
| 20260508093909 | 44 | 190 | 0.0 | 0.9 | 0.00 | 0.00 | 0.00 | 52 | 1007.9 |
| 20260508093709 | 44 | 190 | 0.0 | 1.7 | 0.00 | 0.00 | 0.00 | 52 | 1007.9 |
| 20260508093509 | 44 | 190 | 0.0 | 1.7 | 0.00 | 0.00 | 0.00 | 52 | 1007.9 |
| 20260508093437 | 44 | 190 | 0.0 | 1.7 | 0.00 | 0.00 | 0.00 | 52 | 1007.9 |
| 20260508093306 | 44 | 190 | 0.0 | 1.7 | 0.00 | 0.00 | 0.00 | 52 | 1007.9 |
| 20260508093107 | 44 | 190 | 0.0 | 1.7 | 0.00 | 0.00 | 0.00 | 52 | 1007.9 |
| 20260508092934 | 44 | 190 | 0.0 | 2.6 | 0.00 | 0.00 | 0.00 | 52 | 1007.9 |
| 20260508092905 | 44 | 190 | 0.0 | 2.6 | 0.00 | 0.00 | 0.00 | 52 | 1007.9 |
| 20260508092702 | 44 | 190 | 0.0 | 2.6 | 0.00 | 0.00 | 0.00 | 52 | 1008.0 |
| 20260508092435 | 44 | 190 | 0.0 | 3.5 | 0.00 | 0.00 | 0.00 | 52 | 1008.0 |
| 20260508092301 | 44 | 190 | 0.0 | 3.5 | 0.00 | 0.00 | 0.00 | 51 | 1007.9 |
| 20260508092102 | 45 | 190 | 0.0 | 3.5 | 0.00 | 0.00 | 0.00 | 51 | 1007.9 |
| 20260508091929 | 45 | 190 | 0.0 | 3.5 | 0.00 | 0.00 | 0.00 | 52 | 1007.9 |
| 20260508091901 | 45 | 190 | 0.0 | 3.5 | 0.00 | 0.00 | 0.00 | 52 | 1007.9 |
| 20260508091801 | 45 | 190 | 0.0 | 3.5 | 0.00 | 0.00 | 0.00 | 52 | 1007.9 |
| 20260508091427 | 45 | 193 | 0.0 | 2.6 | 0.00 | 0.00 | 0.00 | 52 | 1007.9 |
| 20260508091258 | 45 | 193 | 0.0 | 2.6 | 0.00 | 0.00 | 0.00 | 52 | 1007.9 |
| 20260508091056 | 45 | 193 | 0.0 | 3.5 | 0.00 | 0.00 | 0.00 | 51 | 1007.9 |
| 20260508090925 | 45 | 193 | 0.0 | 3.5 | 0.00 | 0.00 | 0.00 | 51 | 1007.9 |
| 20260508090856 | 45 | 193 | 0.0 | 3.5 | 0.00 | 0.00 | 0.00 | 51 | 1008.0 |
| 20260508090700 | 45 | 197 | 0.0 | 3.5 | 0.00 | 0.00 | 0.00 | 51 | 1007.9 |
| 20260508090455 | 45 | 197 | 0.0 | 3.5 | 0.00 | 0.00 | 0.00 | 51 | 1008.0 |
| 20260508090422 | 45 | 197 | 0.0 | 3.5 | 0.00 | 0.00 | 0.00 | 51 | 1008.0 |
| 20260508090255 | 45 | 196 | 0.0 | 3.5 | 0.00 | 0.00 | 0.00 | 51 | 1008.0 |
| 20260508090156 | 45 | 197 | 0.0 | 5.2 | 0.00 | 0.00 | 0.00 | 51 | 1008.0 |
| 20260508085919 | 45 | 197 | 0.0 | 5.2 | 0.00 | 0.00 | 0.00 | 51 | 1008.0 |
| 20260508085850 | 45 | 199 | 0.0 | 5.2 | 0.00 | 0.00 | 0.00 | 51 | 1008.0 |
| 20260508085648 | 45 | 197 | 0.0 | 5.2 | 0.00 | 0.00 | 0.00 | 51 | 1008.0 |
| 20260508085449 | 45 | 186 | 0.0 | 5.2 | 0.00 | 0.00 | 0.00 | 51 | 1008.0 |
| 20260508085417 | 45 | 186 | 0.0 | 5.2 | 0.00 | 0.00 | 0.00 | 51 | 1008.0 |
| 20260508085247 | 45 | 183 | 0.0 | 5.2 | 0.00 | 0.00 | 0.00 | 51 | 1008.0 |
| 20260508085050 | 45 | 166 | 0.0 | 3.5 | 0.00 | 0.00 | 0.00 | 51 | 1008.0 |
| 20260508084914 | 45 | 182 | 0.0 | 3.5 | 0.00 | 0.00 | 0.00 | 52 | 1007.9 |
| 20260508084850 | 45 | 210 | 0.0 | 3.5 | 0.00 | 0.00 | 0.00 | 52 | 1007.9 |
| 20260508084647 | 45 | 209 | 0.0 | 3.5 | 0.00 | 0.00 | 0.00 | 52 | 1008.0 |
| 20260508084447 | 45 | 207 | 0.0 | 3.5 | 0.00 | 0.00 | 0.00 | 52 | 1007.9 |
| 20260508084411 | 45 | 216 | 0.0 | 3.5 | 0.00 | 0.00 | 0.00 | 52 | 1008.0 |
| 20260508084343 | 45 | 203 | 0.0 | 3.5 | 0.00 | 0.00 | 0.00 | 52 | 1008.0 |
| 20260508084044 | 44 | 203 | 0.0 | 3.5 | 0.00 | 0.00 | 0.00 | 52 | 1007.9 |
| 20260508083908 | 44 | 202 | 0.0 | 3.5 | 0.00 | 0.00 | 0.00 | 52 | 1008.0 |
| 20260508083846 | 44 | 202 | 0.0 | 3.5 | 0.00 | 0.00 | 0.00 | 52 | 1008.0 |
| 20260508083644 | 44 | 202 | 0.0 | 3.5 | 0.00 | 0.00 | 0.00 | 52 | 1007.9 |
| 20260508083443 | 44 | 200 | 0.0 | 3.5 | 0.00 | 0.00 | 0.00 | 52 | 1008.0 |
| 20260508083409 | 44 | 203 | 0.0 | 2.6 | 0.00 | 0.00 | 0.00 | 52 | 1008.0 |
| 20260508083241 | 44 | 203 | 0.0 | 2.6 | 0.00 | 0.00 | 0.00 | 52 | 1008.0 |
| 20260508083210 | 44 | 203 | 0.0 | 2.6 | 0.00 | 0.00 | 0.00 | 53 | 1007.9 |
| 20260508083147 | 44 | 203 | 0.0 | 2.6 | 0.00 | 0.00 | 0.00 | 52 | 1008.0 |
| 20260508082841 | 44 | 203 | 0.0 | 2.6 | 0.00 | 0.00 | 0.00 | 53 | 1007.9 |
| 20260508082734 | 44 | 216 | 0.0 | 1.7 | 0.00 | 0.00 | 0.00 | 53 | 1008.1 |
| 20260508082439 | 44 | 219 | 0.0 | 1.7 | 0.00 | 0.00 | 0.00 | 53 | 1008.1 |
| 20260508082407 | 44 | 179 | 0.0 | 1.7 | 0.00 | 0.00 | 0.00 | 53 | 1008.0 |
| 20260508082238 | 44 | 178 | 0.0 | 2.6 | 0.00 | 0.00 | 0.00 | 53 | 1008.0 |
| 20260508082207 | 44 | 175 | 0.0 | 2.6 | 0.00 | 0.00 | 0.00 | 54 | 1008.1 |
| 20260508082141 | 44 | 178 | 0.0 | 2.6 | 0.00 | 0.00 | 0.00 | 53 | 1008.0 |
| 20260508081837 | 44 | 175 | 0.0 | 2.6 | 0.00 | 0.00 | 0.00 | 53 | 1008.1 |
| 20260508081638 | 44 | 172 | 0.0 | 2.6 | 0.00 | 0.00 | 0.00 | 54 | 1008.1 |
| 20260508081437 | 44 | 173 | 0.0 | 2.6 | 0.00 | 0.00 | 0.00 | 54 | 1008.0 |
| 20260508081405 | 44 | 173 | 0.0 | 2.6 | 0.00 | 0.00 | 0.00 | 54 | 1008.2 |
| 20260508081241 | 44 | 186 | 0.0 | 1.7 | 0.00 | 0.00 | 0.00 | 55 | 1008.0 |
| 20260508081235 | 44 | 172 | 0.0 | 2.6 | 0.00 | 0.00 | 0.00 | 54 | 1008.1 |
| 20260508081203 | 44 | 192 | 0.0 | 1.7 | 0.00 | 0.00 | 0.00 | 55 | 1008.1 |
| 20260508080837 | 44 | 190 | 0.0 | 1.7 | 0.00 | 0.00 | 0.00 | 55 | 1008.1 |
| 20260508080635 | 44 | 190 | 0.0 | 1.7 | 0.00 | 0.00 | 0.00 | 55 | 1008.1 |
| 20260508080436 | 44 | 190 | 0.0 | 1.7 | 0.00 | 0.00 | 0.00 | 55 | 1008.1 |
| 20260508080404 | 44 | 190 | 0.0 | 1.7 | 0.00 | 0.00 | 0.00 | 55 | 1008.2 |
| 20260508080333 | 44 | 190 | 0.0 | 1.7 | 0.00 | 0.00 | 0.00 | 55 | 1008.2 |
| 20260508080203 | 44 | 190 | 0.0 | 1.7 | 0.00 | 0.00 | 0.00 | 55 | 1008.2 |
| 20260508080138 | 44 | 190 | 0.0 | 1.7 | 0.00 | 0.00 | 0.00 | 55 | 1008.2 |
| 20260508075830 | 44 | 190 | 0.0 | 1.7 | 0.00 | 0.00 | 0.00 | 55 | 1008.2 |
| 20260508075632 | 44 | 190 | 0.0 | 1.7 | 0.00 | 0.00 | 0.00 | 55 | 1008.2 |
| 20260508075402 | 44 | 190 | 0.0 | 1.7 | 0.00 | 0.00 | 0.00 | 55 | 1008.2 |
| 20260508075223 | 44 | 190 | 0.0 | 1.7 | 0.00 | 0.00 | 0.00 | 55 | 1008.2 |
| 20260508075201 | 44 | 190 | 0.0 | 1.7 | 0.00 | 0.00 | 0.00 | 55 | 1008.3 |
| 20260508075137 | 44 | 190 | 0.0 | 1.7 | 0.00 | 0.00 | 0.00 | 55 | 1008.2 |
| 20260508074823 | 44 | 190 | 0.0 | 1.7 | 0.00 | 0.00 | 0.00 | 56 | 1008.3 |
| 20260508074730 | 44 | 189 | 0.0 | 0.9 | 0.00 | 0.00 | 0.00 | 56 | 1008.2 |
| 20260508074404 | 44 | 189 | 0.0 | 1.7 | 0.00 | 0.00 | 0.00 | 55 | 1008.3 |
| 20260508074209 | 44 | 189 | 0.0 | 1.7 | 0.00 | 0.00 | 0.00 | 55 | 1008.3 |
| 20260508074158 | 44 | 189 | 0.0 | 1.7 | 0.00 | 0.00 | 0.00 | 55 | 1008.2 |
| 20260508074134 | 44 | 189 | 0.0 | 1.7 | 0.00 | 0.00 | 0.00 | 56 | 1008.3 |
| 20260508073808 | 44 | 189 | 0.0 | 1.7 | 0.00 | 0.00 | 0.00 | 55 | 1008.3 |
| 20260508073607 | 44 | 189 | 0.0 | 1.7 | 0.00 | 0.00 | 0.00 | 55 | 1008.4 |
| 20260508073401 | 44 | 189 | 0.0 | 1.7 | 0.00 | 0.00 | 0.00 | 55 | 1008.3 |
| 20260508073232 | 44 | 189 | 0.0 | 1.7 | 0.00 | 0.00 | 0.00 | 55 | 1008.3 |
| 20260508073207 | 44 | 189 | 0.0 | 1.7 | 0.00 | 0.00 | 0.00 | 55 | 1008.4 |
| 20260508073157 | 44 | 189 | 0.0 | 1.7 | 0.00 | 0.00 | 0.00 | 55 | 1008.4 |
| 20260508072806 | 44 | 189 | 0.0 | 1.7 | 0.00 | 0.00 | 0.00 | 55 | 1008.3 |
| 20260508072609 | 44 | 189 | 0.0 | 1.7 | 0.00 | 0.00 | 0.00 | 55 | 1008.4 |
| 20260508072400 | 44 | 189 | 0.0 | 1.7 | 0.00 | 0.00 | 0.00 | 55 | 1008.4 |
| 20260508072232 | 44 | 189 | 0.0 | 1.7 | 0.00 | 0.00 | 0.00 | 55 | 1008.5 |
| 20260508072206 | 44 | 189 | 0.0 | 1.7 | 0.00 | 0.00 | 0.00 | 55 | 1008.4 |
| 20260508072145 | 44 | 189 | 0.0 | 1.7 | 0.00 | 0.00 | 0.00 | 55 | 1008.4 |
| 20260508071804 | 44 | 189 | 0.0 | 1.7 | 0.00 | 0.00 | 0.00 | 55 | 1008.4 |
| 20260508071542 | 44 | 189 | 0.0 | 1.7 | 0.00 | 0.00 | 0.00 | 55 | 1008.4 |
| 20260508071342 | 44 | 189 | 0.0 | 2.6 | 0.00 | 0.00 | 0.00 | 55 | 1008.4 |
| 20260508071141 | 44 | 189 | 0.0 | 2.6 | 0.00 | 0.00 | 0.00 | 55 | 1008.5 |
| 20260508070942 | 44 | 188 | 0.0 | 2.6 | 0.00 | 0.00 | 0.00 | 55 | 1008.5 |
| 20260508070835 | 44 | 188 | 0.0 | 2.6 | 0.00 | 0.00 | 0.00 | 55 | 1008.5 |
| 20260508070740 | 44 | 186 | 0.0 | 2.6 | 0.00 | 0.00 | 0.00 | 56 | 1008.5 |
| 20260508070541 | 44 | 186 | 0.0 | 2.6 | 0.00 | 0.00 | 0.00 | 56 | 1008.5 |
| 20260508070442 | 44 | 186 | 0.0 | 1.7 | 0.00 | 0.00 | 0.00 | 56 | 1008.5 |
| 20260508070334 | 44 | 186 | 0.0 | 1.7 | 0.00 | 0.00 | 0.00 | 56 | 1008.5 |
| 20260508070140 | 44 | 185 | 0.0 | 1.7 | 0.00 | 0.00 | 0.00 | 56 | 1008.5 |
| 20260508065940 | 44 | 185 | 0.0 | 1.7 | 0.00 | 0.00 | 0.00 | 56 | 1008.5 |
| 20260508065834 | 44 | 185 | 0.0 | 1.7 | 0.00 | 0.00 | 0.00 | 56 | 1008.5 |
| 20260508065738 | 44 | 185 | 0.0 | 1.7 | 0.00 | 0.00 | 0.00 | 56 | 1008.6 |
| 20260508065543 | 44 | 183 | 0.0 | 1.7 | 0.00 | 0.00 | 0.00 | 56 | 1008.6 |
| 20260508065335 | 44 | 183 | 0.0 | 1.7 | 0.00 | 0.00 | 0.00 | 57 | 1008.5 |
| 20260508065136 | 44 | 186 | 0.0 | 1.7 | 0.00 | 0.00 | 0.00 | 57 | 1008.6 |
| 20260508064934 | 44 | 186 | 0.0 | 1.7 | 0.00 | 0.00 | 0.00 | 57 | 1008.6 |
| 20260508064845 | 44 | 186 | 0.0 | 1.7 | 0.00 | 0.00 | 0.00 | 56 | 1008.6 |
| 20260508064835 | 44 | 186 | 0.0 | 1.7 | 0.00 | 0.00 | 0.00 | 57 | 1008.6 |
| 20260508064537 | 44 | 186 | 0.0 | 1.7 | 0.00 | 0.00 | 0.00 | 56 | 1008.6 |
| 20260508064333 | 44 | 186 | 0.0 | 1.7 | 0.00 | 0.00 | 0.00 | 57 | 1008.6 |
| 20260508064234 | 43 | 186 | 0.0 | 1.7 | 0.00 | 0.00 | 0.00 | 57 | 1008.6 |
| 20260508063932 | 44 | 186 | 0.0 | 1.7 | 0.00 | 0.00 | 0.00 | 57 | 1008.7 |
| 20260508063832 | 44 | 186 | 0.0 | 1.7 | 0.00 | 0.00 | 0.00 | 57 | 1008.7 |
| 20260508063732 | 44 | 186 | 0.0 | 1.7 | 0.00 | 0.00 | 0.00 | 57 | 1008.6 |
| 20260508063636 | 44 | 186 | 0.0 | 0.9 | 0.00 | 0.00 | 0.00 | 57 | 1008.7 |
| 20260508063620 | 44 | 186 | 0.0 | 0.9 | 0.00 | 0.00 | 0.00 | 57 | 1008.8 |
| 20260508063548 | 44 | 186 | 0.0 | 0.9 | 0.00 | 0.00 | 0.00 | 57 | 1008.7 |
| 20260508063108 | 44 | 186 | 0.0 | 0.9 | 0.00 | 0.00 | 0.00 | 57 | 1008.7 |
| 20260508062908 | 44 | 186 | 0.0 | 0.9 | 0.00 | 0.00 | 0.00 | 56 | 1008.7 |
| 20260508062812 | 44 | 186 | 0.0 | 0.9 | 0.00 | 0.00 | 0.00 | 56 | 1008.8 |
| 20260508062713 | 44 | 186 | 0.0 | 0.9 | 0.00 | 0.00 | 0.00 | 56 | 1008.7 |
| 20260508062708 | 44 | 186 | 0.0 | 0.9 | 0.00 | 0.00 | 0.00 | 56 | 1008.7 |
| 20260508062622 | 44 | 186 | 0.0 | 0.9 | 0.00 | 0.00 | 0.00 | 56 | 1008.8 |
| 20260508062309 | 44 | 186 | 0.0 | 0.9 | 0.00 | 0.00 | 0.00 | 56 | 1008.8 |
| 20260508062107 | 44 | 186 | 0.0 | 1.7 | 0.00 | 0.00 | 0.00 | 56 | 1008.8 |
| 20260508061908 | 44 | 186 | 0.0 | 2.6 | 0.00 | 0.00 | 0.00 | 56 | 1008.8 |
| 20260508061810 | 44 | 186 | 0.0 | 2.6 | 0.00 | 0.00 | 0.00 | 57 | 1008.8 |
| 20260508061708 | 44 | 186 | 0.0 | 2.6 | 0.00 | 0.00 | 0.00 | 57 | 1008.8 |
| 20260508061613 | 44 | 186 | 0.0 | 2.6 | 0.00 | 0.00 | 0.00 | 58 | 1008.9 |
| 20260508061553 | 44 | 186 | 0.0 | 2.6 | 0.00 | 0.00 | 0.00 | 57 | 1008.8 |
| 20260508061309 | 44 | 186 | 0.0 | 2.6 | 0.00 | 0.00 | 0.00 | 58 | 1008.9 |
| 20260508061105 | 44 | 186 | 0.0 | 2.6 | 0.00 | 0.00 | 0.00 | 58 | 1008.9 |
| 20260508061004 | 44 | 185 | 0.0 | 0.9 | 0.00 | 0.00 | 0.00 | 57 | 1008.9 |
| 20260508060811 | 44 | 185 | 0.0 | 0.9 | 0.00 | 0.00 | 0.00 | 57 | 1008.9 |
| 20260508060705 | 44 | 185 | 0.0 | 0.9 | 0.00 | 0.00 | 0.00 | 57 | 1008.9 |
| 20260508060612 | 44 | 185 | 0.0 | 0.9 | 0.00 | 0.00 | 0.00 | 57 | 1008.8 |
| 20260508060550 | 44 | 185 | 0.0 | 0.9 | 0.00 | 0.00 | 0.00 | 57 | 1008.8 |
| 20260508060303 | 44 | 185 | 0.0 | 0.9 | 0.00 | 0.00 | 0.00 | 57 | 1008.9 |
| 20260508060209 | 44 | 185 | 0.0 | 0.9 | 0.00 | 0.00 | 0.00 | 56 | 1008.9 |
| 20260508055904 | 44 | 185 | 0.0 | 0.9 | 0.00 | 0.00 | 0.00 | 57 | 1008.9 |
| 20260508055807 | 44 | 185 | 0.0 | 0.9 | 0.00 | 0.00 | 0.00 | 57 | 1008.9 |
| 20260508055704 | 44 | 185 | 0.0 | 0.9 | 0.00 | 0.00 | 0.00 | 57 | 1008.9 |
| 20260508055509 | 44 | 185 | 0.0 | 1.7 | 0.00 | 0.00 | 0.00 | 57 | 1008.9 |
| 20260508055306 | 44 | 185 | 0.0 | 1.7 | 0.00 | 0.00 | 0.00 | 57 | 1009.0 |
| 20260508055253 | 44 | 185 | 0.0 | 1.7 | 0.00 | 0.00 | 0.00 | 57 | 1009.0 |
| 20260508055056 | 44 | 185 | 0.0 | 1.7 | 0.00 | 0.00 | 0.00 | 57 | 1008.9 |
| 20260508054853 | 44 | 185 | 0.0 | 1.7 | 0.00 | 0.00 | 0.00 | 57 | 1008.9 |
| 20260508054805 | 44 | 185 | 0.0 | 1.7 | 0.00 | 0.00 | 0.00 | 58 | 1008.9 |
| 20260508054652 | 44 | 185 | 0.0 | 1.7 | 0.00 | 0.00 | 0.00 | 58 | 1008.9 |
| 20260508054549 | 44 | 185 | 0.0 | 2.6 | 0.00 | 0.00 | 0.00 | 58 | 1009.0 |
| 20260508054305 | 44 | 185 | 0.0 | 2.6 | 0.00 | 0.00 | 0.00 | 58 | 1009.0 |
| 20260508054252 | 44 | 185 | 0.0 | 2.6 | 0.00 | 0.00 | 0.00 | 58 | 1009.0 |
| 20260508054049 | 44 | 185 | 0.0 | 2.6 | 0.00 | 0.00 | 0.00 | 58 | 1009.0 |
| 20260508053848 | 44 | 185 | 0.0 | 2.6 | 0.00 | 0.00 | 0.00 | 58 | 1009.1 |
| 20260508053805 | 44 | 185 | 0.0 | 2.6 | 0.00 | 0.00 | 0.00 | 58 | 1009.1 |
| 20260508053647 | 44 | 185 | 0.0 | 2.6 | 0.00 | 0.00 | 0.00 | 58 | 1009.0 |
| 20260508053447 | 44 | 185 | 0.0 | 2.6 | 0.00 | 0.00 | 0.00 | 58 | 1009.1 |
| 20260508053306 | 44 | 185 | 0.0 | 2.6 | 0.00 | 0.00 | 0.00 | 59 | 1009.0 |
| 20260508053249 | 44 | 172 | 0.0 | 1.7 | 0.00 | 0.00 | 0.00 | 59 | 1009.1 |
| 20260508053044 | 44 | 123 | 0.0 | 1.7 | 0.00 | 0.00 | 0.00 | 59 | 1009.1 |
| 20260508052944 | 44 | 123 | 0.0 | 1.7 | 0.00 | 0.00 | 0.00 | 60 | 1009.0 |
| 20260508052807 | 44 | 123 | 0.0 | 1.7 | 0.00 | 0.00 | 0.00 | 60 | 1009.0 |
| 20260508052645 | 44 | 123 | 0.0 | 1.7 | 0.00 | 0.00 | 0.00 | 61 | 1009.1 |
| 20260508052442 | 43 | 123 | 0.0 | 0.9 | 0.00 | 0.00 | 0.00 | 61 | 1009.1 |
| 20260508052343 | 43 | 123 | 0.0 | 0.9 | 0.00 | 0.00 | 0.00 | 62 | 1009.2 |
| 20260508052309 | 43 | 123 | 0.0 | 0.9 | 0.00 | 0.00 | 0.00 | 61 | 1009.1 |
| 20260508052040 | 43 | 123 | 0.0 | 1.7 | 0.00 | 0.00 | 0.00 | 63 | 1009.1 |
| 20260508051839 | 43 | 123 | 0.0 | 1.7 | 0.00 | 0.00 | 0.00 | 64 | 1009.0 |
| 20260508051808 | 43 | 123 | 0.0 | 1.7 | 0.00 | 0.00 | 0.00 | 64 | 1009.0 |
| 20260508051640 | 43 | 123 | 0.0 | 1.7 | 0.00 | 0.00 | 0.00 | 64 | 1009.1 |
| 20260508051438 | 43 | 123 | 0.0 | 1.7 | 0.00 | 0.00 | 0.00 | 65 | 1009.1 |
| 20260508051308 | 42 | 123 | 0.0 | 1.7 | 0.00 | 0.00 | 0.00 | 66 | 1008.9 |
| 20260508051237 | 42 | 123 | 0.0 | 1.7 | 0.00 | 0.00 | 0.00 | 66 | 1009.1 |
| 20260508051117 | 42 | 123 | 0.0 | 0.9 | 0.00 | 0.00 | 0.00 | 67 | 1009.0 |
| 20260508051103 | 42 | 123 | 0.0 | 0.9 | 0.00 | 0.00 | 0.00 | 67 | 1009.1 |
| 20260508051030 | 42 | 123 | 0.0 | 0.9 | 0.00 | 0.00 | 0.00 | 67 | 1009.0 |
| 20260508050737 | 42 | 123 | 0.0 | 0.9 | 0.00 | 0.00 | 0.00 | 67 | 1009.1 |
| 20260508050441 | 42 | 123 | 0.0 | 0.9 | 0.00 | 0.00 | 0.00 | 67 | 1009.1 |
| 20260508050307 | 42 | 123 | 0.0 | 0.0 | 0.00 | 0.00 | 0.00 | 68 | 1009.2 |
| 20260508050230 | 42 | 123 | 0.0 | 0.0 | 0.00 | 0.00 | 0.00 | 69 | 1009.2 |
| 20260508050033 | 42 | 123 | 0.0 | 0.0 | 0.00 | 0.00 | 0.00 | 73 | 1009.2 |
| 20260508045807 | 42 | 123 | 0.0 | 0.0 | 0.00 | 0.00 | 0.00 | 73 | 1009.2 |
| 20260508045632 | 42 | 123 | 0.0 | 0.0 | 0.00 | 0.00 | 0.00 | 73 | 1009.1 |
| 20260508045423 | 42 | 123 | 0.0 | 0.0 | 0.00 | 0.00 | 0.00 | 72 | 1009.2 |
| 20260508045307 | 42 | 123 | 0.0 | 0.0 | 0.00 | 0.00 | 0.00 | 72 | 1009.2 |
| 20260508045224 | 42 | 123 | 0.0 | 0.0 | 0.00 | 0.00 | 0.00 | 72 | 1009.2 |
| 20260508045122 | 42 | 123 | 0.0 | 0.0 | 0.00 | 0.00 | 0.00 | 72 | 1009.2 |
| 20260508044808 | 42 | 123 | 0.0 | 0.0 | 0.00 | 0.00 | 0.00 | 72 | 1009.2 |
| 20260508044622 | 42 | 123 | 0.0 | 0.0 | 0.00 | 0.00 | 0.00 | 72 | 1009.3 |
| 20260508044418 | 42 | 123 | 0.0 | 0.0 | 0.00 | 0.00 | 0.00 | 72 | 1009.3 |
| 20260508044307 | 42 | 123 | 0.0 | 0.0 | 0.00 | 0.00 | 0.00 | 73 | 1009.2 |
| 20260508044218 | 42 | 123 | 0.0 | 0.0 | 0.00 | 0.00 | 0.00 | 73 | 1009.3 |
| 20260508044017 | 42 | 123 | 0.0 | 0.0 | 0.00 | 0.00 | 0.00 | 73 | 1009.3 |
| 20260508043807 | 42 | 123 | 0.0 | 0.0 | 0.00 | 0.00 | 0.00 | 72 | 1009.2 |
| 20260508043616 | 42 | 123 | 0.0 | 0.0 | 0.00 | 0.00 | 0.00 | 72 | 1009.3 |
| 20260508043417 | 42 | 123 | 0.0 | 0.0 | 0.00 | 0.00 | 0.00 | 71 | 1009.2 |
| 20260508043306 | 42 | 123 | 0.0 | 0.0 | 0.00 | 0.00 | 0.00 | 70 | 1009.3 |
| 20260508043216 | 41 | 123 | 0.0 | 0.0 | 0.00 | 0.00 | 0.00 | 70 | 1009.3 |
| 20260508043114 | 41 | 123 | 0.0 | 0.0 | 0.00 | 0.00 | 0.00 | 69 | 1009.3 |
| 20260508042806 | 41 | 123 | 0.0 | 0.0 | 0.00 | 0.00 | 0.00 | 69 | 1009.3 |
| 20260508042618 | 41 | 123 | 0.0 | 0.0 | 0.00 | 0.00 | 0.00 | 69 | 1009.3 |
| 20260508042413 | 41 | 123 | 0.0 | 0.0 | 0.00 | 0.00 | 0.00 | 69 | 1009.3 |
| 20260508042308 | 41 | 123 | 0.0 | 0.0 | 0.00 | 0.00 | 0.00 | 70 | 1009.4 |
| 20260508042208 | 41 | 123 | 0.0 | 0.0 | 0.00 | 0.00 | 0.00 | 70 | 1009.4 |
| 20260508042009 | 41 | 123 | 0.0 | 0.0 | 0.00 | 0.00 | 0.00 | 70 | 1009.4 |
| 20260508041809 | 41 | 123 | 0.0 | 0.0 | 0.00 | 0.00 | 0.00 | 70 | 1009.4 |
| 20260508041609 | 42 | 123 | 0.0 | 0.0 | 0.00 | 0.00 | 0.00 | 70 | 1009.4 |
| 20260508041509 | 42 | 123 | 0.0 | 0.0 | 0.00 | 0.00 | 0.00 | 69 | 1009.5 |
| 20260508041307 | 42 | 123 | 0.0 | 0.0 | 0.00 | 0.00 | 0.00 | 69 | 1009.5 |
| 20260508041210 | 42 | 123 | 0.0 | 0.0 | 0.00 | 0.00 | 0.00 | 69 | 1009.4 |
| 20260508041010 | 42 | 123 | 0.0 | 0.0 | 0.00 | 0.00 | 0.00 | 68 | 1009.5 |
| 20260508040810 | 42 | 123 | 0.0 | 0.0 | 0.00 | 0.00 | 0.00 | 67 | 1009.4 |
| 20260508040609 | 42 | 123 | 0.0 | 0.0 | 0.00 | 0.00 | 0.00 | 67 | 1009.4 |
| 20260508040414 | 42 | 123 | 0.0 | 0.0 | 0.00 | 0.00 | 0.00 | 66 | 1009.4 |
| 20260508040305 | 42 | 123 | 0.0 | 0.0 | 0.00 | 0.00 | 0.00 | 67 | 1009.5 |
| 20260508040210 | 42 | 123 | 0.0 | 0.0 | 0.00 | 0.00 | 0.00 | 67 | 1009.5 |
| 20260508040010 | 42 | 123 | 0.0 | 0.0 | 0.00 | 0.00 | 0.00 | 67 | 1009.4 |
| 20260508035803 | 42 | 123 | 0.0 | 0.0 | 0.00 | 0.00 | 0.00 | 66 | 1009.5 |
| 20260508035622 | 42 | 123 | 0.0 | 0.0 | 0.00 | 0.00 | 0.00 | 66 | 1009.5 |
| 20260508035412 | 42 | 123 | 0.0 | 0.0 | 0.00 | 0.00 | 0.00 | 66 | 1009.5 |
| 20260508035316 | 42 | 123 | 0.0 | 0.0 | 0.00 | 0.00 | 0.00 | 66 | 1009.5 |
| 20260508035306 | 42 | 123 | 0.0 | 0.0 | 0.00 | 0.00 | 0.00 | 66 | 1009.5 |
| 20260508035009 | 42 | 123 | 0.0 | 0.0 | 0.00 | 0.00 | 0.00 | 66 | 1009.6 |
| 20260508034802 | 42 | 123 | 0.0 | 0.0 | 0.00 | 0.00 | 0.00 | 66 | 1009.6 |
| 20260508034609 | 42 | 123 | 0.0 | 0.0 | 0.00 | 0.00 | 0.00 | 64 | 1009.4 |
| 20260508034600 | 42 | 123 | 0.0 | 0.0 | 0.00 | 0.00 | 0.00 | 64 | 1009.6 |
| 20260508034539 | 42 | 123 | 0.0 | 0.0 | 0.00 | 0.00 | 0.00 | 64 | 1009.5 |
| 20260508034210 | 42 | 123 | 0.0 | 0.0 | 0.00 | 0.00 | 0.00 | 64 | 1009.6 |
| 20260508034009 | 42 | 123 | 0.0 | 0.0 | 0.00 | 0.00 | 0.00 | 65 | 1009.5 |
| 20260508033802 | 42 | 123 | 0.0 | 0.0 | 0.00 | 0.00 | 0.00 | 65 | 1009.6 |
| 20260508033712 | 42 | 123 | 0.0 | 0.0 | 0.00 | 0.00 | 0.00 | 63 | 1009.5 |
| 20260508033602 | 42 | 123 | 0.0 | 0.0 | 0.00 | 0.00 | 0.00 | 63 | 1009.5 |
| 20260508033538 | 42 | 123 | 0.0 | 0.0 | 0.00 | 0.00 | 0.00 | 63 | 1009.6 |
| 20260508033209 | 42 | 123 | 0.0 | 0.0 | 0.00 | 0.00 | 0.00 | 63 | 1009.5 |
| 20260508033009 | 42 | 123 | 0.0 | 0.0 | 0.00 | 0.00 | 0.00 | 63 | 1009.6 |
| 20260508032802 | 43 | 123 | 0.0 | 0.0 | 0.00 | 0.00 | 0.00 | 64 | 1009.6 |
| 20260508032612 | 43 | 123 | 0.0 | 0.0 | 0.00 | 0.00 | 0.00 | 64 | 1009.6 |
| 20260508032602 | 43 | 123 | 0.0 | 0.0 | 0.00 | 0.00 | 0.00 | 63 | 1009.7 |
| 20260508032540 | 43 | 123 | 0.0 | 0.0 | 0.00 | 0.00 | 0.00 | 63 | 1009.6 |
| 20260508032209 | 43 | 123 | 0.0 | 0.0 | 0.00 | 0.00 | 0.00 | 63 | 1009.7 |
| 20260508032009 | 43 | 123 | 0.0 | 0.0 | 0.00 | 0.00 | 0.00 | 63 | 1009.6 |
| 20260508031801 | 43 | 123 | 0.0 | 0.0 | 0.00 | 0.00 | 0.00 | 63 | 1009.6 |
| 20260508031609 | 43 | 123 | 0.0 | 0.0 | 0.00 | 0.00 | 0.00 | 62 | 1009.6 |
| 20260508031411 | 43 | 123 | 0.0 | 0.0 | 0.00 | 0.00 | 0.00 | 62 | 1009.6 |
| 20260508031301 | 43 | 123 | 0.0 | 0.0 | 0.00 | 0.00 | 0.00 | 62 | 1009.6 |
| 20260508031210 | 43 | 123 | 0.0 | 0.0 | 0.00 | 0.00 | 0.00 | 62 | 1009.6 |
| 20260508031111 | 44 | 123 | 0.0 | 0.0 | 0.00 | 0.00 | 0.00 | 62 | 1009.6 |
| 20260508030801 | 44 | 123 | 0.0 | 0.0 | 0.00 | 0.00 | 0.00 | 62 | 1009.6 |
| 20260508030609 | 44 | 123 | 0.0 | 0.0 | 0.00 | 0.00 | 0.00 | 61 | 1009.6 |
| 20260508030410 | 44 | 123 | 0.0 | 0.0 | 0.00 | 0.00 | 0.00 | 61 | 1009.6 |
| 20260508030302 | 44 | 123 | 0.0 | 0.0 | 0.00 | 0.00 | 0.00 | 60 | 1009.8 |
| 20260508030209 | 44 | 123 | 0.0 | 0.0 | 0.00 | 0.00 | 0.00 | 60 | 1009.8 |
| 20260508030133 | 44 | 123 | 0.0 | 0.0 | 0.00 | 0.00 | 0.00 | 60 | 1009.7 |
| 20260508030115 | 44 | 123 | 0.0 | 0.0 | 0.00 | 0.00 | 0.00 | 60 | 1009.7 |
| 20260508030027 | 44 | 123 | 0.0 | 0.0 | 0.00 | 0.00 | 0.00 | 60 | 1009.7 |
| 20260508025609 | 44 | 123 | 0.0 | 0.0 | 0.00 | 0.00 | 0.00 | 59 | 1009.7 |
| 20260508025508 | 45 | 123 | 0.0 | 0.0 | 0.00 | 0.00 | 0.00 | 59 | 1009.7 |
| 20260508025301 | 45 | 123 | 0.0 | 0.0 | 0.00 | 0.00 | 0.00 | 59 | 1009.7 |
| 20260508025210 | 45 | 123 | 0.0 | 0.0 | 0.00 | 0.00 | 0.00 | 58 | 1009.7 |
| 20260508025118 | 45 | 123 | 0.0 | 0.0 | 0.00 | 0.00 | 0.00 | 57 | 1009.7 |
| 20260508025059 | 45 | 123 | 0.0 | 0.0 | 0.00 | 0.00 | 0.00 | 58 | 1009.7 |
| 20260508025028 | 45 | 123 | 0.0 | 0.0 | 0.00 | 0.00 | 0.00 | 57 | 1009.7 |
| 20260508024609 | 45 | 123 | 0.0 | 0.0 | 0.00 | 0.00 | 0.00 | 57 | 1009.7 |
| 20260508024410 | 46 | 123 | 0.0 | 0.0 | 0.00 | 0.00 | 0.00 | 57 | 1009.6 |
| 20260508024302 | 46 | 123 | 0.0 | 0.0 | 0.00 | 0.00 | 0.00 | 56 | 1009.6 |
| 20260508024209 | 46 | 123 | 0.0 | 0.0 | 0.00 | 0.00 | 0.00 | 56 | 1009.6 |
| 20260508024201 | 46 | 123 | 0.0 | 0.0 | 0.00 | 0.00 | 0.00 | 55 | 1009.6 |
| 20260508024120 | 46 | 123 | 0.0 | 0.0 | 0.00 | 0.00 | 0.00 | 55 | 1009.6 |
| 20260508024031 | 46 | 123 | 0.0 | 0.0 | 0.00 | 0.00 | 0.00 | 55 | 1009.6 |
| 20260508023609 | 46 | 123 | 0.0 | 0.0 | 0.00 | 0.00 | 0.00 | 55 | 1009.6 |
| 20260508023409 | 46 | 123 | 0.0 | 0.0 | 0.00 | 0.00 | 0.00 | 54 | 1009.7 |
| 20260508023258 | 47 | 123 | 0.0 | 0.0 | 0.00 | 0.00 | 0.00 | 53 | 1009.6 |
| 20260508023209 | 47 | 123 | 0.0 | 0.0 | 0.00 | 0.00 | 0.00 | 53 | 1009.6 |
| 20260508023009 | 47 | 123 | 0.0 | 0.0 | 0.00 | 0.00 | 0.00 | 53 | 1009.6 |
| 20260508022809 | 47 | 123 | 0.0 | 0.0 | 0.00 | 0.00 | 0.00 | 53 | 1009.5 |
| 20260508022754 | 47 | 123 | 0.0 | 0.0 | 0.00 | 0.00 | 0.00 | 53 | 1009.6 |
| 20260508022610 | 47 | 123 | 0.0 | 0.0 | 0.00 | 0.00 | 0.00 | 52 | 1009.6 |
| 20260508022513 | 47 | 123 | 0.0 | 0.0 | 0.00 | 0.00 | 0.00 | 51 | 1009.5 |
| 20260508022255 | 47 | 123 | 0.0 | 0.0 | 0.00 | 0.00 | 0.00 | 51 | 1009.5 |
| 20260508022209 | 47 | 123 | 0.0 | 0.0 | 0.00 | 0.00 | 0.00 | 51 | 1009.5 |
| 20260508022010 | 47 | 123 | 0.0 | 0.0 | 0.00 | 0.00 | 0.00 | 51 | 1009.6 |
| 20260508021811 | 48 | 123 | 0.0 | 0.0 | 0.00 | 0.00 | 0.00 | 50 | 1009.5 |
| 20260508021752 | 48 | 123 | 0.0 | 0.0 | 0.00 | 0.00 | 0.00 | 50 | 1009.5 |
| 20260508021610 | 48 | 123 | 0.0 | 0.0 | 0.00 | 0.00 | 0.00 | 51 | 1009.5 |
| 20260508021409 | 48 | 123 | 0.0 | 0.0 | 0.00 | 0.00 | 0.00 | 50 | 1009.4 |
| 20260508021252 | 48 | 123 | 0.0 | 0.0 | 0.00 | 0.00 | 0.00 | 50 | 1009.4 |
| 20260508021210 | 48 | 123 | 0.0 | 0.0 | 0.00 | 0.00 | 0.00 | 49 | 1009.4 |
| 20260508021009 | 48 | 123 | 0.0 | 0.0 | 0.00 | 0.00 | 0.00 | 49 | 1009.4 |
| 20260508020919 | 49 | 123 | 0.0 | 0.0 | 0.00 | 0.00 | 0.00 | 49 | 1009.4 |
| 20260508020753 | 48 | 123 | 0.0 | 0.0 | 0.00 | 0.00 | 0.00 | 49 | 1009.3 |
| 20260508020610 | 49 | 123 | 0.0 | 0.0 | 0.00 | 0.00 | 0.00 | 49 | 1009.3 |
| 20260508020410 | 49 | 123 | 0.0 | 0.0 | 0.00 | 0.00 | 0.00 | 48 | 1009.3 |
| 20260508020250 | 49 | 123 | 0.0 | 0.0 | 0.00 | 0.00 | 0.00 | 48 | 1009.2 |
| 20260508020209 | 49 | 123 | 0.0 | 0.0 | 0.00 | 0.00 | 0.00 | 48 | 1009.3 |
| 20260508020111 | 49 | 123 | 0.0 | 0.0 | 0.00 | 0.00 | 0.00 | 48 | 1009.3 |
| 20260508015806 | 49 | 123 | 0.0 | 0.0 | 0.00 | 0.00 | 0.00 | 48 | 1009.3 |
| 20260508015751 | 49 | 123 | 0.0 | 0.0 | 0.00 | 0.00 | 0.00 | 48 | 1009.3 |
| 20260508015602 | 49 | 123 | 0.0 | 0.0 | 0.00 | 0.00 | 0.00 | 48 | 1009.2 |
| 20260508015402 | 50 | 123 | 0.0 | 0.0 | 0.00 | 0.00 | 0.00 | 48 | 1009.2 |
| 20260508015255 | 50 | 123 | 0.0 | 0.0 | 0.00 | 0.00 | 0.00 | 48 | 1009.2 |
| 20260508015202 | 50 | 123 | 0.0 | 0.0 | 0.00 | 0.00 | 0.00 | 47 | 1009.2 |
| 20260508015112 | 50 | 123 | 0.0 | 0.0 | 0.00 | 0.00 | 0.00 | 46 | 1009.1 |
| 20260508015051 | 50 | 123 | 0.0 | 0.0 | 0.00 | 0.00 | 0.00 | 47 | 1009.2 |
| 20260508015011 | 50 | 123 | 0.0 | 0.0 | 0.00 | 0.00 | 0.00 | 46 | 1009.1 |
| 20260508014602 | 50 | 123 | 0.0 | 0.0 | 0.00 | 0.00 | 0.00 | 46 | 1009.2 |
| 20260508014503 | 51 | 123 | 0.0 | 0.0 | 0.00 | 0.00 | 0.00 | 46 | 1009.1 |
| 20260508014252 | 51 | 123 | 0.0 | 0.0 | 0.00 | 0.00 | 0.00 | 46 | 1009.2 |
| 20260508014202 | 51 | 123 | 0.0 | 0.0 | 0.00 | 0.00 | 0.00 | 47 | 1009.0 |
| 20260508014051 | 51 | 123 | 0.0 | 0.9 | 0.00 | 0.00 | 0.00 | 46 | 1009.0 |
| 20260508014037 | 51 | 123 | 0.0 | 0.9 | 0.00 | 0.00 | 0.00 | 46 | 1009.0 |
| 20260508014004 | 51 | 123 | 0.0 | 0.9 | 0.00 | 0.00 | 0.00 | 46 | 1009.0 |
| 20260508013603 | 52 | 123 | 0.0 | 0.9 | 0.00 | 0.00 | 0.00 | 46 | 1009.0 |
| 20260508013402 | 52 | 123 | 0.0 | 0.9 | 0.00 | 0.00 | 0.00 | 45 | 1009.0 |
| 20260508013245 | 52 | 123 | 0.0 | 0.9 | 0.00 | 0.00 | 0.00 | 45 | 1009.0 |
| 20260508013202 | 52 | 123 | 0.0 | 0.9 | 0.00 | 0.00 | 0.00 | 45 | 1009.0 |
| 20260508013057 | 53 | 123 | 0.0 | 0.9 | 0.00 | 0.00 | 0.00 | 45 | 1009.0 |
| 20260508013045 | 53 | 123 | 0.0 | 0.9 | 0.00 | 0.00 | 0.00 | 44 | 1009.0 |
| 20260508013029 | 53 | 123 | 0.0 | 0.9 | 0.00 | 0.00 | 0.00 | 45 | 1009.0 |
| 20260508012602 | 53 | 123 | 0.0 | 0.0 | 0.00 | 0.00 | 0.00 | 43 | 1009.0 |
| 20260508012404 | 54 | 123 | 0.0 | 0.9 | 0.00 | 0.00 | 0.00 | 45 | 1009.1 |
| 20260508012242 | 54 | 123 | 0.0 | 0.9 | 0.00 | 0.00 | 0.00 | 44 | 1009.0 |
| 20260508012052 | 55 | 123 | 0.0 | 0.9 | 0.00 | 0.00 | 0.00 | 42 | 1009.0 |
| 20260508012036 | 54 | 123 | 0.0 | 0.9 | 0.00 | 0.00 | 0.00 | 43 | 1009.0 |
| 20260508012003 | 54 | 123 | 0.0 | 0.9 | 0.00 | 0.00 | 0.00 | 42 | 1009.0 |
| 20260508011604 | 55 | 123 | 0.0 | 0.9 | 0.00 | 0.00 | 0.00 | 41 | 1009.0 |
| 20260508011403 | 55 | 123 | 0.0 | 0.0 | 0.00 | 0.00 | 0.00 | 36 | 1008.9 |
| 20260508011239 | 55 | 123 | 0.0 | 0.0 | 0.00 | 0.00 | 0.00 | 36 | 1009.0 |
| 20260508011203 | 55 | 123 | 0.0 | 0.0 | 0.00 | 0.00 | 0.00 | 35 | 1009.0 |
| 20260508011004 | 55 | 123 | 0.0 | 0.0 | 0.00 | 0.00 | 0.00 | 35 | 1009.0 |
| 20260508010805 | 56 | 123 | 0.0 | 0.0 | 0.00 | 0.00 | 0.00 | 35 | 1009.0 |
| 20260508010740 | 56 | 123 | 0.0 | 0.0 | 0.00 | 0.00 | 0.00 | 35 | 1009.0 |
| 20260508010653 | 56 | 123 | 0.0 | 0.0 | 0.00 | 0.00 | 0.00 | 35 | 1008.9 |
| 20260508010355 | 56 | 123 | 0.0 | 0.0 | 0.00 | 0.00 | 0.00 | 35 | 1009.0 |
| 20260508010241 | 56 | 123 | 0.0 | 0.0 | 0.00 | 0.00 | 0.00 | 35 | 1008.9 |
| 20260508010157 | 56 | 123 | 0.0 | 0.0 | 0.00 | 0.00 | 0.00 | 36 | 1009.0 |
| 20260508005955 | 56 | 123 | 0.0 | 0.9 | 0.00 | 0.00 | 0.00 | 38 | 1008.9 |
| 20260508005755 | 56 | 123 | 0.0 | 0.9 | 0.00 | 0.00 | 0.00 | 37 | 1008.9 |
| 20260508005738 | 56 | 123 | 0.0 | 0.9 | 0.00 | 0.00 | 0.00 | 35 | 1008.9 |
| 20260508005556 | 56 | 123 | 0.0 | 0.9 | 0.00 | 0.00 | 0.00 | 35 | 1008.9 |
| 20260508005353 | 56 | 123 | 0.0 | 1.7 | 0.00 | 0.00 | 0.00 | 35 | 1009.0 |
| 20260508005238 | 56 | 123 | 0.0 | 1.7 | 0.00 | 0.00 | 0.00 | 35 | 1009.0 |
| 20260508005153 | 56 | 123 | 0.0 | 1.7 | 0.00 | 0.00 | 0.00 | 36 | 1008.9 |
| 20260508005057 | 57 | 123 | 0.0 | 1.7 | 0.00 | 0.00 | 0.00 | 37 | 1008.9 |
| 20260508004738 | 57 | 123 | 0.0 | 2.6 | 0.00 | 0.00 | 0.00 | 36 | 1008.9 |
| 20260508004550 | 57 | 123 | 0.0 | 2.6 | 0.00 | 0.00 | 0.00 | 35 | 1008.9 |
| 20260508004349 | 57 | 106 | 0.0 | 2.6 | 0.00 | 0.00 | 0.00 | 35 | 1008.9 |
| 20260508004238 | 57 | 106 | 0.0 | 2.6 | 0.00 | 0.00 | 0.00 | 37 | 1008.9 |
| 20260508004148 | 57 | 106 | 0.0 | 2.6 | 0.00 | 0.00 | 0.00 | 37 | 1008.9 |
| 20260508003950 | 57 | 100 | 0.0 | 2.6 | 0.00 | 0.00 | 0.00 | 35 | 1008.9 |
| 20260508003849 | 57 | 230 | 0.0 | 2.6 | 0.00 | 0.00 | 0.00 | 36 | 1008.9 |
| 20260508003736 | 57 | 230 | 0.0 | 3.5 | 0.00 | 0.00 | 0.00 | 36 | 1008.9 |
| 20260508003546 | 58 | 230 | 0.0 | 3.5 | 0.00 | 0.00 | 0.00 | 34 | 1008.9 |
| 20260508003344 | 58 | 230 | 0.0 | 3.5 | 0.00 | 0.00 | 0.00 | 34 | 1008.8 |
| 20260508003237 | 58 | 230 | 0.0 | 3.5 | 0.00 | 0.00 | 0.00 | 36 | 1008.9 |
| 20260508003143 | 58 | 230 | 0.0 | 3.5 | 0.00 | 0.00 | 0.00 | 36 | 1008.9 |
| 20260508002943 | 58 | 230 | 0.0 | 3.5 | 0.00 | 0.00 | 0.00 | 34 | 1008.8 |
| 20260508002745 | 58 | 244 | 0.0 | 4.3 | 0.00 | 0.00 | 0.00 | 33 | 1008.8 |
| 20260508002736 | 58 | 262 | 0.0 | 4.3 | 0.00 | 0.00 | 0.00 | 33 | 1008.8 |
| 20260508002544 | 58 | 262 | 0.0 | 4.3 | 0.00 | 0.00 | 0.00 | 34 | 1008.9 |
| 20260508002339 | 58 | 262 | 0.0 | 4.3 | 0.00 | 0.00 | 0.00 | 33 | 1008.9 |
| 20260508002246 | 58 | 247 | 0.0 | 4.3 | 0.00 | 0.00 | 0.00 | 33 | 1008.9 |
| 20260508002234 | 58 | 261 | 0.0 | 4.3 | 0.00 | 0.00 | 0.00 | 33 | 1008.8 |
| 20260508002039 | 58 | 235 | 0.0 | 2.6 | 0.00 | 0.00 | 0.00 | 33 | 1008.9 |
| 20260508002021 | 58 | 245 | 0.0 | 4.3 | 0.00 | 0.00 | 0.00 | 33 | 1008.9 |
| 20260508001950 | 58 | 235 | 0.0 | 2.6 | 0.00 | 0.00 | 0.00 | 33 | 1008.9 |
| 20260508001537 | 58 | 237 | 0.0 | 2.6 | 0.00 | 0.00 | 0.00 | 34 | 1008.8 |
| 20260508001338 | 58 | 237 | 0.0 | 3.5 | 0.00 | 0.00 | 0.00 | 33 | 1008.9 |
| 20260508001231 | 58 | 237 | 0.0 | 3.5 | 0.00 | 0.00 | 0.00 | 34 | 1008.9 |
| 20260508001131 | 58 | 237 | 0.0 | 3.5 | 0.00 | 0.00 | 0.00 | 32 | 1008.8 |
| 20260508001041 | 58 | 237 | 0.0 | 3.5 | 0.00 | 0.00 | 0.00 | 35 | 1008.9 |
| 20260508001018 | 58 | 237 | 0.0 | 3.5 | 0.00 | 0.00 | 0.00 | 32 | 1008.9 |
| 20260508000949 | 58 | 237 | 0.0 | 3.5 | 0.00 | 0.00 | 0.00 | 35 | 1008.9 |
| 20260508000635 | 58 | 237 | 0.0 | 3.5 | 0.00 | 0.00 | 0.00 | 32 | 1009.0 |
| 20260508000334 | 59 | 227 | 0.0 | 4.3 | 0.00 | 0.00 | 0.00 | 35 | 1008.9 |
| 20260508000242 | 59 | 227 | 0.0 | 4.3 | 0.00 | 0.00 | 0.00 | 32 | 1008.9 |
| 20260508000234 | 59 | 227 | 0.0 | 4.3 | 0.00 | 0.00 | 0.00 | 32 | 1008.8 |
| 20260508000008 | 59 | 227 | 0.0 | 4.3 | 0.00 | 0.00 | 0.00 | 32 | 1009.0 |
| 20260507235952 | 59 | 227 | 0.0 | 4.3 | 0.00 | 0.00 | 0.00 | 33 | 1008.9 |
| 20260507235918 | 59 | 227 | 0.0 | 4.3 | 0.00 | 0.00 | 0.00 | 32 | 1009.0 |
| 20260507235509 | 59 | 209 | 0.0 | 3.5 | 0.00 | 0.00 | 0.00 | 31 | 1009.0 |
| 20260507235309 | 59 | 190 | 0.0 | 2.6 | 0.00 | 0.00 | 0.00 | 32 | 1009.0 |
| 20260507235209 | 59 | 190 | 0.0 | 2.6 | 0.00 | 0.00 | 0.00 | 32 | 1009.0 |
| 20260507235105 | 59 | 190 | 0.0 | 2.6 | 0.00 | 0.00 | 0.00 | 31 | 1009.0 |
| 20260507234904 | 59 | 190 | 0.0 | 2.6 | 0.00 | 0.00 | 0.00 | 32 | 1009.1 |
| 20260507234711 | 59 | 190 | 0.0 | 2.6 | 0.00 | 0.00 | 0.00 | 32 | 1009.0 |
| 20260507234704 | 59 | 190 | 0.0 | 2.6 | 0.00 | 0.00 | 0.00 | 32 | 1009.1 |
| 20260507234607 | 59 | 219 | 0.0 | 2.6 | 0.00 | 0.00 | 0.00 | 31 | 1009.0 |
| 20260507234304 | 59 | 219 | 0.0 | 2.6 | 0.00 | 0.00 | 0.00 | 31 | 1009.1 |
| 20260507234207 | 59 | 219 | 0.0 | 4.3 | 0.00 | 0.00 | 0.00 | 31 | 1009.1 |
| 20260507234041 | 59 | 219 | 0.0 | 5.2 | 0.00 | 0.00 | 0.00 | 33 | 1009.1 |
| 20260507233958 | 59 | 233 | 0.0 | 5.2 | 0.00 | 0.00 | 0.00 | 31 | 1009.2 |
| 20260507233942 | 59 | 219 | 0.0 | 5.2 | 0.00 | 0.00 | 0.00 | 30 | 1009.2 |
| 20260507233640 | 59 | 233 | 0.0 | 5.2 | 0.00 | 0.00 | 0.00 | 31 | 1009.2 |
| 20260507233439 | 59 | 240 | 0.0 | 5.2 | 0.00 | 0.00 | 0.00 | 31 | 1009.2 |
| 20260507233241 | 59 | 252 | 0.0 | 5.2 | 0.00 | 0.00 | 0.00 | 31 | 1009.2 |
| 20260507233207 | 59 | 254 | 0.0 | 5.2 | 0.00 | 0.00 | 0.00 | 31 | 1009.2 |
| 20260507233044 | 59 | 47 | 0.0 | 3.5 | 0.00 | 0.00 | 0.00 | 32 | 1009.2 |
| 20260507233039 | 59 | 183 | 0.0 | 3.5 | 0.00 | 0.00 | 0.00 | 32 | 1009.2 |
| 20260507232948 | 59 | 47 | 0.0 | 3.5 | 0.00 | 0.00 | 0.00 | 31 | 1009.2 |
| 20260507232638 | 59 | 47 | 0.0 | 3.5 | 0.00 | 0.00 | 0.00 | 30 | 1009.2 |
| 20260507232440 | 60 | 61 | 0.0 | 3.5 | 0.00 | 0.00 | 0.00 | 30 | 1009.2 |
| 20260507232208 | 60 | 45 | 0.0 | 6.1 | 0.00 | 0.00 | 0.00 | 31 | 1009.2 |
| 20260507232031 | 60 | 45 | 0.0 | 6.1 | 0.00 | 0.00 | 0.00 | 28 | 1009.2 |
| 20260507231941 | 60 | 204 | 0.0 | 6.1 | 0.00 | 0.00 | 0.00 | 32 | 1009.3 |
| 20260507231930 | 60 | 204 | 0.0 | 6.1 | 0.00 | 0.00 | 0.00 | 30 | 1009.2 |
| 20260507231613 | 60 | 237 | 0.0 | 6.1 | 0.00 | 0.00 | 0.00 | 30 | 1009.3 |
| 20260507231513 | 61 | 255 | 0.0 | 6.1 | 0.00 | 0.00 | 0.00 | 28 | 1009.3 |
| 20260507231219 | 61 | 250 | 0.0 | 5.2 | 0.00 | 0.00 | 0.00 | 30 | 1009.2 |
| 20260507231208 | 61 | 245 | 0.0 | 4.3 | 0.00 | 0.00 | 0.00 | 33 | 1009.2 |
| 20260507231013 | 61 | 252 | 0.0 | 3.5 | 0.00 | 0.00 | 0.00 | 34 | 1009.3 |
| 20260507230811 | 60 | 254 | 0.0 | 4.3 | 0.00 | 0.00 | 0.00 | 31 | 1009.3 |
| 20260507230708 | 60 | 254 | 0.0 | 4.3 | 0.00 | 0.00 | 0.00 | 30 | 1009.2 |
| 20260507230613 | 60 | 254 | 0.0 | 4.3 | 0.00 | 0.00 | 0.00 | 31 | 1009.2 |
| 20260507230507 | 60 | 254 | 0.0 | 5.2 | 0.00 | 0.00 | 0.00 | 29 | 1009.3 |
| 20260507230450 | 60 | 254 | 0.0 | 5.2 | 0.00 | 0.00 | 0.00 | 29 | 1009.2 |
| 20260507230421 | 60 | 254 | 0.0 | 5.2 | 0.00 | 0.00 | 0.00 | 29 | 1009.2 |
| 20260507230007 | 60 | 254 | 0.0 | 5.2 | 0.00 | 0.00 | 0.00 | 31 | 1009.2 |
| 20260507225905 | 60 | 257 | 0.0 | 5.2 | 0.00 | 0.00 | 0.00 | 32 | 1009.3 |
| 20260507225702 | 60 | 257 | 0.0 | 5.2 | 0.00 | 0.00 | 0.00 | 31 | 1009.3 |
| 20260507225605 | 60 | 264 | 0.0 | 5.2 | 0.00 | 0.00 | 0.00 | 32 | 1009.3 |
| 20260507225503 | 60 | 203 | 0.0 | 5.2 | 0.00 | 0.00 | 0.00 | 30 | 1009.4 |
| 20260507225448 | 60 | 48 | 0.0 | 5.2 | 0.00 | 0.00 | 0.00 | 31 | 1009.3 |
| 20260507225420 | 60 | 203 | 0.0 | 5.2 | 0.00 | 0.00 | 0.00 | 30 | 1009.4 |
| 20260507225007 | 60 | 207 | 0.0 | 5.2 | 0.00 | 0.00 | 0.00 | 32 | 1009.4 |
| 20260507224805 | 60 | 252 | 0.0 | 5.2 | 0.00 | 0.00 | 0.00 | 31 | 1009.5 |
| 20260507224702 | 60 | 243 | 0.0 | 5.2 | 0.00 | 0.00 | 0.00 | 30 | 1009.4 |
| 20260507224603 | 60 | 241 | 0.0 | 5.2 | 0.00 | 0.00 | 0.00 | 30 | 1009.4 |
| 20260507224446 | 59 | 244 | 0.0 | 7.8 | 0.00 | 0.00 | 0.00 | 29 | 1009.5 |
| 20260507224434 | 59 | 244 | 0.0 | 7.8 | 0.00 | 0.00 | 0.00 | 29 | 1009.4 |
| 20260507224153 | 59 | 244 | 0.0 | 7.8 | 0.00 | 0.00 | 0.00 | 29 | 1009.5 |
| 20260507223952 | 59 | 244 | 0.0 | 7.8 | 0.00 | 0.00 | 0.00 | 29 | 1009.5 |
| 20260507223753 | 59 | 244 | 0.0 | 7.8 | 0.00 | 0.00 | 0.00 | 29 | 1009.4 |
| 20260507223706 | 59 | 244 | 0.0 | 7.8 | 0.00 | 0.00 | 0.00 | 29 | 1009.5 |
| 20260507223533 | 59 | 244 | 0.0 | 7.8 | 0.00 | 0.00 | 0.00 | 30 | 1009.4 |
| 20260507223333 | 59 | 226 | 0.0 | 7.8 | 0.00 | 0.00 | 0.00 | 31 | 1009.5 |
| 20260507223203 | 59 | 223 | 0.0 | 6.1 | 0.00 | 0.00 | 0.00 | 29 | 1009.5 |
| 20260507223133 | 60 | 223 | 0.0 | 6.1 | 0.00 | 0.00 | 0.00 | 32 | 1009.5 |
| 20260507223026 | 60 | 237 | 0.0 | 7.8 | 0.00 | 0.00 | 0.00 | 29 | 1009.5 |
| 20260507222732 | 60 | 233 | 0.0 | 7.8 | 0.00 | 0.00 | 0.00 | 30 | 1009.5 |
| 20260507222700 | 60 | 247 | 0.0 | 7.8 | 0.00 | 0.00 | 0.00 | 30 | 1009.5 |
| 20260507222531 | 60 | 228 | 0.0 | 7.8 | 0.00 | 0.00 | 0.00 | 31 | 1009.5 |
| 20260507222333 | 60 | 250 | 0.0 | 7.8 | 0.00 | 0.00 | 0.00 | 30 | 1009.5 |
| 20260507222159 | 60 | 265 | 0.0 | 7.8 | 0.00 | 0.00 | 0.00 | 32 | 1009.5 |
| 20260507222130 | 60 | 254 | 0.0 | 7.8 | 0.00 | 0.00 | 0.00 | 32 | 1009.4 |
| 20260507222003 | 60 | 309 | 0.0 | 7.8 | 0.00 | 0.00 | 0.00 | 34 | 1009.5 |
| 20260507221951 | 60 | 228 | 0.0 | 6.1 | 0.00 | 0.00 | 0.00 | 31 | 1009.4 |
| 20260507221923 | 60 | 227 | 0.0 | 7.8 | 0.00 | 0.00 | 0.00 | 33 | 1009.5 |
| 20260507221527 | 59 | 283 | 0.0 | 7.8 | 0.00 | 0.00 | 0.00 | 31 | 1009.4 |
| 20260507221424 | 59 | 283 | 0.0 | 7.8 | 0.00 | 0.00 | 0.00 | 30 | 1009.4 |
| 20260507221200 | 59 | 227 | 0.0 | 7.8 | 0.00 | 0.00 | 0.00 | 30 | 1009.4 |
| 20260507221116 | 59 | 227 | 0.0 | 7.8 | 0.00 | 0.00 | 0.00 | 32 | 1009.5 |
| 20260507221007 | 59 | 231 | 0.0 | 7.8 | 0.00 | 0.00 | 0.00 | 29 | 1009.5 |
| 20260507220952 | 59 | 209 | 0.0 | 7.8 | 0.00 | 0.00 | 0.00 | 33 | 1009.5 |
| 20260507220920 | 59 | 233 | 0.0 | 7.8 | 0.00 | 0.00 | 0.00 | 29 | 1009.5 |
| 20260507220509 | 60 | 257 | 0.0 | 6.1 | 0.00 | 0.00 | 0.00 | 31 | 1009.6 |
| 20260507220306 | 60 | 258 | 0.0 | 8.7 | 0.00 | 0.00 | 0.00 | 30 | 1009.6 |
| 20260507220156 | 60 | 224 | 0.0 | 8.7 | 0.00 | 0.00 | 0.00 | 33 | 1009.5 |
| 20260507220107 | 60 | 238 | 0.0 | 8.7 | 0.00 | 0.00 | 0.00 | 32 | 1009.5 |
| 20260507220010 | 60 | 41 | 0.0 | 9.6 | 0.00 | 0.00 | 0.00 | 32 | 1009.7 |
| 20260507215948 | 60 | 255 | 0.0 | 8.7 | 0.00 | 0.00 | 0.00 | 30 | 1009.6 |
| 20260507215919 | 60 | 41 | 0.0 | 9.6 | 0.00 | 0.00 | 0.00 | 32 | 1009.7 |
| 20260507215506 | 60 | 240 | 0.0 | 9.6 | 0.00 | 0.00 | 0.00 | 30 | 1009.7 |
| 20260507215307 | 60 | 281 | 0.0 | 9.6 | 0.00 | 0.00 | 0.00 | 33 | 1009.7 |
| 20260507215211 | 60 | 223 | 0.0 | 9.6 | 0.00 | 0.00 | 0.00 | 32 | 1009.6 |
| 20260507215157 | 60 | 247 | 0.0 | 9.6 | 0.00 | 0.00 | 0.00 | 32 | 1009.6 |
| 20260507214907 | 60 | 261 | 0.0 | 9.6 | 0.00 | 0.00 | 0.00 | 31 | 1009.5 |
| 20260507214655 | 60 | 245 | 0.0 | 4.3 | 0.00 | 0.00 | 0.00 | 33 | 1009.6 |
| 20260507214459 | 60 | 37 | 0.0 | 8.7 | 0.00 | 0.00 | 0.00 | 32 | 1009.7 |
| 20260507214441 | 59 | 230 | 0.0 | 8.7 | 0.00 | 0.00 | 0.00 | 30 | 1009.6 |
| 20260507214420 | 60 | 13 | 0.0 | 8.7 | 0.00 | 0.00 | 0.00 | 32 | 1009.6 |
| 20260507214045 | 59 | 238 | 0.0 | 8.7 | 0.00 | 0.00 | 0.00 | 29 | 1009.7 |
| 20260507213844 | 59 | 240 | 0.0 | 8.7 | 0.00 | 0.00 | 0.00 | 32 | 1009.7 |
| 20260507213653 | 59 | 226 | 0.0 | 8.7 | 0.00 | 0.00 | 0.00 | 31 | 1009.7 |
| 20260507213647 | 59 | 238 | 0.0 | 8.7 | 0.00 | 0.00 | 0.00 | 31 | 1009.7 |
| 20260507213548 | 59 | 227 | 0.0 | 8.7 | 0.00 | 0.00 | 0.00 | 33 | 1009.7 |
| 20260507213452 | 59 | 209 | 0.0 | 8.7 | 0.00 | 0.00 | 0.00 | 32 | 1009.8 |
| 20260507213419 | 59 | 210 | 0.0 | 8.7 | 0.00 | 0.00 | 0.00 | 33 | 1009.8 |
| 20260507213034 | 59 | 244 | 0.0 | 8.7 | 0.00 | 0.00 | 0.00 | 31 | 1009.8 |
| 20260507212835 | 59 | 213 | 0.0 | 8.7 | 0.00 | 0.00 | 0.00 | 34 | 1009.8 |
| 20260507212651 | 59 | 248 | 0.0 | 8.7 | 0.00 | 0.00 | 0.00 | 34 | 1009.8 |
| 20260507212627 | 59 | 255 | 0.0 | 8.7 | 0.00 | 0.00 | 0.00 | 34 | 1009.8 |
| 20260507212459 | 59 | 228 | 0.0 | 7.8 | 0.00 | 0.00 | 0.00 | 31 | 1009.8 |
| 20260507212441 | 59 | 251 | 0.0 | 7.8 | 0.00 | 0.00 | 0.00 | 33 | 1009.9 |
| 20260507212413 | 59 | 220 | 0.0 | 7.8 | 0.00 | 0.00 | 0.00 | 31 | 1009.8 |
| 20260507212006 | 59 | 34 | 0.0 | 7.8 | 0.00 | 0.00 | 0.00 | 30 | 1009.8 |
| 20260507211806 | 59 | 231 | 0.0 | 7.8 | 0.00 | 0.00 | 0.00 | 35 | 1009.9 |
| 20260507211705 | 59 | 282 | 0.0 | 6.1 | 0.00 | 0.00 | 0.00 | 34 | 1009.9 |
| 20260507211651 | 59 | 268 | 0.0 | 6.1 | 0.00 | 0.00 | 0.00 | 34 | 1009.8 |
| 20260507211408 | 58 | 257 | 0.0 | 6.1 | 0.00 | 0.00 | 0.00 | 35 | 1009.9 |
| 20260507211209 | 58 | 252 | 0.0 | 6.1 | 0.00 | 0.00 | 0.00 | 31 | 1009.9 |
| 20260507211151 | 58 | 252 | 0.0 | 6.1 | 0.00 | 0.00 | 0.00 | 31 | 1009.9 |
| 20260507211008 | 58 | 252 | 0.0 | 6.1 | 0.00 | 0.00 | 0.00 | 31 | 1009.9 |
| 20260507210756 | 59 | 257 | 0.0 | 6.1 | 0.00 | 0.00 | 0.00 | 31 | 1009.9 |
| 20260507210654 | 59 | 247 | 0.0 | 3.5 | 0.00 | 0.00 | 0.00 | 31 | 1010.0 |
| 20260507210532 | 59 | 212 | 0.0 | 3.5 | 0.00 | 0.00 | 0.00 | 32 | 1009.9 |
| 20260507210332 | 59 | 212 | 0.0 | 6.1 | 0.00 | 0.00 | 0.00 | 32 | 1010.0 |
| 20260507210132 | 59 | 212 | 0.0 | 6.1 | 0.00 | 0.00 | 0.00 | 34 | 1010.0 |
| 20260507210116 | 59 | 213 | 0.0 | 6.1 | 0.00 | 0.00 | 0.00 | 31 | 1010.0 |
| 20260507210031 | 59 | 48 | 0.0 | 6.1 | 0.00 | 0.00 | 0.00 | 34 | 1010.0 |
| 20260507205933 | 58 | 226 | 0.0 | 6.1 | 0.00 | 0.00 | 0.00 | 35 | 1010.0 |
| 20260507205900 | 58 | 226 | 0.0 | 6.1 | 0.00 | 0.00 | 0.00 | 36 | 1010.0 |
| 20260507205513 | 58 | 224 | 0.0 | 6.1 | 0.00 | 0.00 | 0.00 | 33 | 1010.0 |
| 20260507205313 | 58 | 226 | 0.0 | 6.1 | 0.00 | 0.00 | 0.00 | 35 | 1010.2 |
| 20260507205130 | 58 | 261 | 0.0 | 6.1 | 0.00 | 0.00 | 0.00 | 32 | 1010.0 |
| 20260507205115 | 58 | 248 | 0.0 | 6.1 | 0.00 | 0.00 | 0.00 | 32 | 1010.0 |
| 20260507204934 | 58 | 32 | 0.0 | 5.2 | 0.00 | 0.00 | 0.00 | 32 | 1010.1 |
| 20260507204927 | 58 | 220 | 0.0 | 5.2 | 0.00 | 0.00 | 0.00 | 35 | 1010.1 |
| 20260507204855 | 58 | 286 | 0.0 | 5.2 | 0.00 | 0.00 | 0.00 | 34 | 1010.2 |
| 20260507204511 | 57 | 228 | 0.0 | 5.2 | 0.00 | 0.00 | 0.00 | 36 | 1010.2 |
| 20260507204404 | 57 | 203 | 0.0 | 5.2 | 0.00 | 0.00 | 0.00 | 37 | 1010.1 |
| 20260507204133 | 57 | 203 | 0.0 | 5.2 | 0.00 | 0.00 | 0.00 | 32 | 1010.2 |
| 20260507204055 | 57 | 203 | 0.0 | 5.2 | 0.00 | 0.00 | 0.00 | 32 | 1010.2 |
| 20260507203940 | 56 | 252 | 0.0 | 6.1 | 0.00 | 0.00 | 0.00 | 36 | 1010.2 |
| 20260507203927 | 57 | 255 | 0.0 | 5.2 | 0.00 | 0.00 | 0.00 | 36 | 1010.2 |
| 20260507203853 | 56 | 237 | 0.0 | 6.1 | 0.00 | 0.00 | 0.00 | 36 | 1010.3 |
| 20260507203453 | 56 | 227 | 0.0 | 6.1 | 0.00 | 0.00 | 0.00 | 32 | 1010.3 |
| 20260507203252 | 57 | 235 | 0.0 | 6.1 | 0.00 | 0.00 | 0.00 | 32 | 1010.4 |
| 20260507203131 | 57 | 235 | 0.0 | 7.8 | 0.00 | 0.00 | 0.00 | 32 | 1010.3 |
| 20260507203051 | 57 | 235 | 0.0 | 7.8 | 0.00 | 0.00 | 0.00 | 32 | 1010.3 |
| 20260507202833 | 57 | 250 | 0.0 | 7.8 | 0.00 | 0.00 | 0.00 | 35 | 1010.4 |
| 20260507202631 | 58 | 262 | 0.0 | 7.8 | 0.00 | 0.00 | 0.00 | 36 | 1010.4 |
| 20260507202433 | 57 | 262 | 0.0 | 7.8 | 0.00 | 0.00 | 0.00 | 36 | 1010.4 |
| 20260507202216 | 57 | 252 | 0.0 | 7.8 | 0.00 | 0.00 | 0.00 | 34 | 1010.4 |
| 20260507202122 | 57 | 223 | 0.0 | 6.1 | 0.00 | 0.00 | 0.00 | 37 | 1010.4 |
| 20260507202114 | 57 | 233 | 0.0 | 6.1 | 0.00 | 0.00 | 0.00 | 40 | 1010.5 |
| 20260507201815 | 56 | 251 | 0.0 | 6.1 | 0.00 | 0.00 | 0.00 | 36 | 1010.4 |
| 20260507201621 | 57 | 320 | 0.0 | 6.1 | 0.00 | 0.00 | 0.00 | 36 | 1010.4 |
| 20260507201615 | 57 | 333 | 0.0 | 4.3 | 0.00 | 0.00 | 0.00 | 36 | 1010.4 |
| 20260507201416 | 56 | 223 | 0.0 | 4.3 | 0.00 | 0.00 | 0.00 | 40 | 1010.5 |
| 20260507201213 | 55 | 73 | 0.0 | 4.3 | 0.00 | 0.00 | 0.00 | 42 | 1010.5 |
| 20260507201120 | 55 | 73 | 0.0 | 4.3 | 0.00 | 0.00 | 0.00 | 39 | 1010.4 |
| 20260507201014 | 55 | 45 | 0.0 | 4.3 | 0.00 | 0.00 | 0.00 | 37 | 1010.5 |
| 20260507200813 | 56 | 42 | 0.0 | 4.3 | 0.00 | 0.00 | 0.00 | 51 | 1010.5 |
| 20260507200617 | 56 | 65 | 0.0 | 4.3 | 0.00 | 0.00 | 0.00 | 47 | 1010.5 |
| 20260507200612 | 56 | 75 | 0.0 | 4.3 | 0.00 | 0.00 | 0.00 | 47 | 1010.5 |
| 20260507200513 | 56 | 124 | 0.0 | 4.3 | 0.00 | 0.00 | 0.00 | 41 | 1010.5 |
| 20260507200212 | 56 | 128 | 0.0 | 4.3 | 0.00 | 0.00 | 0.00 | 39 | 1010.6 |
| 20260507200114 | 57 | 151 | 0.0 | 4.3 | 0.00 | 0.00 | 0.00 | 41 | 1010.7 |
| 20260507200009 | 57 | 151 | 0.0 | 4.3 | 0.00 | 0.00 | 0.00 | 42 | 1010.7 |
| 20260507195804 | 57 | 44 | 0.0 | 4.3 | 0.00 | 0.00 | 0.00 | 41 | 1010.6 |
| 20260507195618 | 57 | 38 | 0.0 | 4.3 | 0.00 | 0.00 | 0.00 | 40 | 1010.6 |
| 20260507195605 | 57 | 292 | 0.0 | 4.3 | 0.00 | 0.00 | 0.00 | 40 | 1010.6 |
| 20260507195351 | 57 | 234 | 0.0 | 3.5 | 0.00 | 0.00 | 0.00 | 37 | 1010.6 |
| 20260507195152 | 57 | 90 | 0.0 | 3.5 | 0.00 | 0.00 | 0.00 | 37 | 1010.7 |
| 20260507195106 | 57 | 4 | 0.0 | 3.5 | 0.00 | 0.00 | 0.00 | 37 | 1010.7 |
| 20260507194952 | 56 | 41 | 0.0 | 4.3 | 0.00 | 0.00 | 0.00 | 41 | 1010.7 |
| 20260507194908 | 56 | 334 | 0.0 | 7.8 | 0.00 | 0.00 | 0.00 | 40 | 1010.7 |
| 20260507194842 | 56 | 264 | 0.0 | 7.8 | 0.00 | 0.00 | 0.00 | 33 | 1010.7 |
| 20260507194547 | 56 | 25 | 0.0 | 7.8 | 0.00 | 0.00 | 0.00 | 36 | 1010.8 |
| 20260507194349 | 56 | 25 | 0.0 | 7.8 | 0.00 | 0.00 | 0.00 | 35 | 1010.8 |
| 20260507194258 | 56 | 296 | 0.0 | 7.8 | 0.00 | 0.00 | 0.00 | 39 | 1010.8 |
| 20260507194106 | 56 | 204 | 0.0 | 7.8 | 0.00 | 0.00 | 0.00 | 39 | 1010.8 |
| 20260507193947 | 56 | 193 | 0.0 | 7.8 | 0.00 | 0.00 | 0.00 | 36 | 1010.7 |
| 20260507193747 | 56 | 251 | 0.0 | 5.2 | 0.00 | 0.00 | 0.00 | 34 | 1010.9 |
| 20260507193604 | 56 | 264 | 0.0 | 5.2 | 0.00 | 0.00 | 0.00 | 39 | 1010.8 |
| 20260507193544 | 56 | 268 | 0.0 | 5.2 | 0.00 | 0.00 | 0.00 | 41 | 1010.8 |
| 20260507193342 | 55 | 44 | 0.0 | 6.1 | 0.00 | 0.00 | 0.00 | 46 | 1010.8 |
| 20260507193145 | 55 | 39 | 0.0 | 6.1 | 0.00 | 0.00 | 0.00 | 35 | 1010.9 |
| 20260507193105 | 55 | 39 | 0.0 | 6.1 | 0.00 | 0.00 | 0.00 | 35 | 1010.9 |
| 20260507192939 | 55 | 49 | 0.0 | 6.1 | 0.00 | 0.00 | 0.00 | 38 | 1011.0 |
| 20260507192738 | 55 | 240 | 0.0 | 7.8 | 0.00 | 0.00 | 0.00 | 41 | 1010.9 |
| 20260507192640 | 56 | 219 | 0.0 | 7.8 | 0.00 | 0.00 | 0.00 | 38 | 1010.9 |
| 20260507192605 | 56 | 237 | 0.0 | 7.8 | 0.00 | 0.00 | 0.00 | 38 | 1010.9 |
| 20260507192337 | 56 | 234 | 0.0 | 7.8 | 0.00 | 0.00 | 0.00 | 38 | 1010.9 |
| 20260507192134 | 57 | 252 | 0.0 | 7.8 | 0.00 | 0.00 | 0.00 | 32 | 1011.0 |
| 20260507192103 | 57 | 248 | 0.0 | 7.8 | 0.00 | 0.00 | 0.00 | 33 | 1011.0 |
| 20260507191936 | 57 | 244 | 0.0 | 6.1 | 0.00 | 0.00 | 0.00 | 35 | 1011.0 |
| 20260507191735 | 57 | 333 | 0.0 | 6.1 | 0.00 | 0.00 | 0.00 | 37 | 1010.9 |
| 20260507191605 | 56 | 31 | 0.0 | 6.1 | 0.00 | 0.00 | 0.00 | 36 | 1011.0 |
| 20260507191535 | 56 | 27 | 0.0 | 6.1 | 0.00 | 0.00 | 0.00 | 36 | 1011.0 |
| 20260507191333 | 56 | 130 | 0.0 | 6.1 | 0.00 | 0.00 | 0.00 | 34 | 1011.0 |
| 20260507191134 | 55 | 292 | 0.0 | 6.1 | 0.00 | 0.00 | 0.00 | 37 | 1011.0 |
| 20260507191101 | 55 | 292 | 0.0 | 6.1 | 0.00 | 0.00 | 0.00 | 36 | 1011.0 |
| 20260507191036 | 54 | 189 | 0.0 | 6.1 | 0.00 | 0.00 | 0.00 | 35 | 1010.9 |
| 20260507190731 | 54 | 248 | 0.0 | 6.1 | 0.00 | 0.00 | 0.00 | 33 | 1010.9 |
| 20260507190602 | 54 | 254 | 0.0 | 10.4 | 0.00 | 0.00 | 0.00 | 35 | 1011.0 |
| 20260507190534 | 54 | 254 | 0.0 | 10.4 | 0.00 | 0.00 | 0.00 | 35 | 1011.0 |
| 20260507190400 | 55 | 207 | 0.0 | 10.4 | 0.00 | 0.00 | 0.00 | 31 | 1011.0 |
| 20260507190347 | 54 | 199 | 0.0 | 10.4 | 0.00 | 0.00 | 0.00 | 34 | 1011.1 |
| 20260507190312 | 55 | 206 | 0.0 | 10.4 | 0.00 | 0.00 | 0.00 | 31 | 1011.0 |
| 20260507185910 | 56 | 213 | 0.0 | 10.4 | 0.00 | 0.00 | 0.00 | 37 | 1011.1 |
| 20260507185709 | 56 | 235 | 0.0 | 10.4 | 0.00 | 0.00 | 0.00 | 35 | 1011.1 |
| 20260507185556 | 56 | 245 | 0.0 | 6.1 | 0.00 | 0.00 | 0.00 | 34 | 1011.1 |
| 20260507185508 | 56 | 258 | 0.0 | 6.1 | 0.00 | 0.00 | 0.00 | 35 | 1011.0 |
| 20260507185447 | 54 | 16 | 0.0 | 5.2 | 0.00 | 0.00 | 0.00 | 35 | 1011.0 |
| 20260507185405 | 55 | 241 | 0.0 | 5.2 | 0.00 | 0.00 | 0.00 | 37 | 1011.1 |
| 20260507185317 | 55 | 230 | 0.0 | 5.2 | 0.00 | 0.00 | 0.00 | 37 | 1011.1 |
| 20260507184907 | 55 | 245 | 0.0 | 7.8 | 0.00 | 0.00 | 0.00 | 35 | 1011.1 |
| 20260507184710 | 56 | 250 | 0.0 | 7.8 | 0.00 | 0.00 | 0.00 | 35 | 1011.1 |
| 20260507184555 | 56 | 264 | 0.0 | 7.8 | 0.00 | 0.00 | 0.00 | 37 | 1011.1 |
| 20260507184506 | 56 | 224 | 0.0 | 7.8 | 0.00 | 0.00 | 0.00 | 36 | 1011.1 |
| 20260507184359 | 57 | 45 | 0.0 | 7.8 | 0.00 | 0.00 | 0.00 | 38 | 1011.2 |
| 20260507184347 | 56 | 320 | 0.0 | 7.8 | 0.00 | 0.00 | 0.00 | 36 | 1011.1 |
| 20260507184314 | 57 | 37 | 0.0 | 7.8 | 0.00 | 0.00 | 0.00 | 38 | 1011.2 |
| 20260507183907 | 56 | 18 | 0.0 | 7.8 | 0.00 | 0.00 | 0.00 | 36 | 1011.1 |
| 20260507183705 | 56 | 32 | 0.0 | 7.8 | 0.00 | 0.00 | 0.00 | 35 | 1011.1 |
| 20260507183553 | 56 | 32 | 0.0 | 7.8 | 0.00 | 0.00 | 0.00 | 35 | 1011.2 |
| 20260507183505 | 56 | 20 | 0.0 | 5.2 | 0.00 | 0.00 | 0.00 | 32 | 1011.1 |
| 20260507183439 | 56 | 11 | 0.0 | 5.2 | 0.00 | 0.00 | 0.00 | 35 | 1011.2 |
| 20260507183349 | 56 | 35 | 0.0 | 5.2 | 0.00 | 0.00 | 0.00 | 37 | 1011.2 |
| 20260507183308 | 56 | 35 | 0.0 | 5.2 | 0.00 | 0.00 | 0.00 | 37 | 1011.2 |
| 20260507182906 | 56 | 243 | 0.0 | 5.2 | 0.00 | 0.00 | 0.00 | 37 | 1011.2 |
| 20260507182702 | 56 | 231 | 0.0 | 8.7 | 0.00 | 0.00 | 0.00 | 37 | 1011.2 |
| 20260507182549 | 56 | 278 | 0.0 | 8.7 | 0.00 | 0.00 | 0.00 | 38 | 1011.2 |
| 20260507182504 | 56 | 250 | 0.0 | 8.7 | 0.00 | 0.00 | 0.00 | 38 | 1011.2 |
| 20260507182354 | 55 | 155 | 0.0 | 8.7 | 0.00 | 0.00 | 0.00 | 34 | 1011.2 |
| 20260507182339 | 56 | 52 | 0.0 | 8.7 | 0.00 | 0.00 | 0.00 | 35 | 1011.4 |
| 20260507182307 | 55 | 157 | 0.0 | 8.7 | 0.00 | 0.00 | 0.00 | 34 | 1011.2 |
| 20260507181901 | 55 | 221 | 0.0 | 8.7 | 0.00 | 0.00 | 0.00 | 33 | 1011.1 |
| 20260507181800 | 56 | 264 | 0.0 | 4.3 | 0.00 | 0.00 | 0.00 | 39 | 1011.2 |
| 20260507181551 | 56 | 245 | 0.0 | 5.2 | 0.00 | 0.00 | 0.00 | 38 | 1011.2 |
| 20260507181459 | 56 | 4 | 0.0 | 5.2 | 0.00 | 0.00 | 0.00 | 34 | 1011.2 |
| 20260507181402 | 56 | 51 | 0.0 | 5.2 | 0.00 | 0.00 | 0.00 | 36 | 1011.4 |
| 20260507181345 | 56 | 0 | 0.0 | 5.2 | 0.00 | 0.00 | 0.00 | 37 | 1011.4 |
| 20260507181310 | 56 | 51 | 0.0 | 5.2 | 0.00 | 0.00 | 0.00 | 36 | 1011.4 |
| 20260507180900 | 56 | 20 | 0.0 | 5.2 | 0.00 | 0.00 | 0.00 | 37 | 1011.4 |
| 20260507180702 | 55 | 23 | 0.0 | 5.2 | 0.00 | 0.00 | 0.00 | 37 | 1011.4 |
| 20260507180549 | 55 | 257 | 0.0 | 5.2 | 0.00 | 0.00 | 0.00 | 36 | 1011.2 |
| 20260507180456 | 55 | 51 | 0.0 | 5.2 | 0.00 | 0.00 | 0.00 | 34 | 1011.5 |
| 20260507180356 | 56 | 303 | 0.0 | 5.2 | 0.00 | 0.00 | 0.00 | 36 | 1011.4 |
| 20260507180340 | 56 | 17 | 0.0 | 5.2 | 0.00 | 0.00 | 0.00 | 34 | 1011.5 |
| 20260507175851 | 56 | 52 | 0.0 | 5.2 | 0.00 | 0.00 | 0.00 | 34 | 1011.5 |
| 20260507175656 | 56 | 231 | 0.0 | 5.2 | 0.00 | 0.00 | 0.00 | 35 | 1011.4 |
| 20260507175553 | 56 | 235 | 0.0 | 5.2 | 0.00 | 0.00 | 0.00 | 36 | 1011.4 |
| 20260507175454 | 56 | 245 | 0.0 | 5.2 | 0.00 | 0.00 | 0.00 | 37 | 1011.5 |
| 20260507175359 | 55 | 341 | 0.0 | 5.2 | 0.00 | 0.00 | 0.00 | 36 | 1011.4 |
| 20260507175342 | 56 | 8 | 0.0 | 5.2 | 0.00 | 0.00 | 0.00 | 37 | 1011.4 |
| 20260507175307 | 55 | 341 | 0.0 | 5.2 | 0.00 | 0.00 | 0.00 | 36 | 1011.4 |
| 20260507174853 | 55 | 182 | 0.0 | 5.2 | 0.00 | 0.00 | 0.00 | 35 | 1011.4 |
| 20260507174653 | 55 | 235 | 0.0 | 5.2 | 0.00 | 0.00 | 0.00 | 37 | 1011.5 |
| 20260507174602 | 54 | 257 | 0.0 | 5.2 | 0.00 | 0.00 | 0.00 | 35 | 1011.5 |
| 20260507174552 | 54 | 234 | 0.0 | 5.2 | 0.00 | 0.00 | 0.00 | 39 | 1011.5 |
| 20260507174254 | 54 | 244 | 0.0 | 6.1 | 0.00 | 0.00 | 0.00 | 41 | 1011.5 |
| 20260507174054 | 53 | 214 | 0.0 | 6.1 | 0.00 | 0.00 | 0.00 | 35 | 1011.5 |
| 20260507173853 | 53 | 250 | 0.0 | 6.1 | 0.00 | 0.00 | 0.00 | 42 | 1011.5 |
| 20260507173654 | 53 | 226 | 0.0 | 6.1 | 0.00 | 0.00 | 0.00 | 38 | 1011.6 |
| 20260507173553 | 54 | 226 | 0.0 | 6.1 | 0.00 | 0.00 | 0.00 | 34 | 1011.6 |
| 20260507173453 | 55 | 238 | 0.0 | 7.8 | 0.00 | 0.00 | 0.00 | 37 | 1011.6 |
| 20260507173253 | 55 | 250 | 0.0 | 7.8 | 0.00 | 0.00 | 0.00 | 39 | 1011.6 |
| 20260507173054 | 55 | 347 | 0.0 | 7.8 | 0.00 | 0.00 | 0.00 | 40 | 1011.6 |
| 20260507172955 | 54 | 31 | 0.0 | 7.8 | 0.00 | 0.00 | 0.00 | 35 | 1011.6 |
| 20260507172653 | 55 | 278 | 0.0 | 7.8 | 0.00 | 0.00 | 0.00 | 34 | 1011.6 |
| 20260507172548 | 55 | 28 | 0.0 | 7.8 | 0.00 | 0.00 | 0.00 | 37 | 1011.6 |
| 20260507172453 | 55 | 31 | 0.0 | 6.1 | 0.00 | 0.00 | 0.00 | 41 | 1011.6 |
| 20260507172254 | 54 | 243 | 0.0 | 7.8 | 0.00 | 0.00 | 0.00 | 36 | 1011.8 |
| 20260507172049 | 54 | 245 | 0.0 | 7.8 | 0.00 | 0.00 | 0.00 | 37 | 1011.7 |
| 20260507171853 | 54 | 221 | 0.0 | 7.8 | 0.00 | 0.00 | 0.00 | 33 | 1011.8 |
| 20260507171654 | 55 | 192 | 0.0 | 7.8 | 0.00 | 0.00 | 0.00 | 37 | 1011.9 |
| 20260507171547 | 55 | 254 | 0.0 | 7.8 | 0.00 | 0.00 | 0.00 | 36 | 1011.8 |
| 20260507171454 | 55 | 261 | 0.0 | 7.8 | 0.00 | 0.00 | 0.00 | 35 | 1011.8 |
| 20260507171253 | 55 | 255 | 0.0 | 4.3 | 0.00 | 0.00 | 0.00 | 37 | 1011.7 |
| 20260507171157 | 54 | 120 | 0.0 | 4.3 | 0.00 | 0.00 | 0.00 | 38 | 1011.8 |
| 20260507171047 | 54 | 120 | 0.0 | 4.3 | 0.00 | 0.00 | 0.00 | 38 | 1011.8 |
| 20260507170853 | 54 | 227 | 0.0 | 6.1 | 0.00 | 0.00 | 0.00 | 39 | 1011.8 |
| 20260507170653 | 54 | 227 | 0.0 | 6.1 | 0.00 | 0.00 | 0.00 | 37 | 1011.9 |
| 20260507170544 | 54 | 66 | 0.0 | 6.1 | 0.00 | 0.00 | 0.00 | 39 | 1011.9 |
| 20260507170453 | 54 | 240 | 0.0 | 6.1 | 0.00 | 0.00 | 0.00 | 38 | 1011.9 |
| 20260507170357 | 53 | 235 | 0.0 | 6.1 | 0.00 | 0.00 | 0.00 | 35 | 1011.9 |
| 20260507170341 | 53 | 240 | 0.0 | 6.1 | 0.00 | 0.00 | 0.00 | 37 | 1011.9 |
| 20260507170307 | 53 | 235 | 0.0 | 6.1 | 0.00 | 0.00 | 0.00 | 35 | 1011.8 |
| 20260507165854 | 53 | 186 | 0.0 | 6.1 | 0.00 | 0.00 | 0.00 | 36 | 1011.9 |
| 20260507165653 | 53 | 231 | 0.0 | 4.3 | 0.00 | 0.00 | 0.00 | 39 | 1011.9 |
| 20260507165557 | 53 | 223 | 0.0 | 3.5 | 0.00 | 0.00 | 0.00 | 37 | 1012.0 |
| 20260507165544 | 53 | 264 | 0.0 | 4.3 | 0.00 | 0.00 | 0.00 | 38 | 1011.9 |
| 20260507165253 | 53 | 259 | 0.0 | 4.3 | 0.00 | 0.00 | 0.00 | 40 | 1012.0 |
| 20260507165054 | 53 | 28 | 0.0 | 5.2 | 0.00 | 0.00 | 0.00 | 42 | 1011.9 |
| 20260507165042 | 53 | 27 | 0.0 | 5.2 | 0.00 | 0.00 | 0.00 | 42 | 1011.9 |
| 20260507164853 | 51 | 199 | 0.0 | 5.2 | 0.00 | 0.00 | 0.00 | 41 | 1012.0 |
| 20260507164655 | 51 | 199 | 0.0 | 5.2 | 0.00 | 0.00 | 0.00 | 41 | 1012.0 |
| 20260507164543 | 51 | 231 | 0.0 | 7.8 | 0.00 | 0.00 | 0.00 | 40 | 1012.1 |
| 20260507164453 | 52 | 244 | 0.0 | 7.8 | 0.00 | 0.00 | 0.00 | 43 | 1012.1 |
| 20260507164253 | 51 | 247 | 0.0 | 7.8 | 0.00 | 0.00 | 0.00 | 47 | 1012.0 |